GFSGBSN_2pvu_pres_000.txt.gz
Presure
360 352 350 339 323 308 306 303 290 290 284 278 258 292 280 251 271 272 260 234 215 220 217 215 205 205 202 207 214 205 219 200 202 203 201 208 190 212 177 212 219 224 218 220 219 202 195
332 334 334 337 328 337 339 321 300 293 283 298 291 285 273 277 268 261 254 243 226 225 212 214 219 215 201 208 211 214 208 207 195 202 204 202 199 181 185 215 218 221 216 229 222 223 231
322 309 300 303 303 303 295 333 324 325 310 297 287 286 252 268 252 252 248 232 219 226 223 217 216 214 214 213 213 216 212 213 205 193 202 201 194 214 193 213 219 219 232 230 223 236 223
315 299 289 294 278 283 285 284 289 321 303 295 284 285 266 264 248 244 235 227 249 317 271 246 239 230 225 128 218 212 217 217 196 200 189 198 205 209 206 220 211 225 233 219 228 232 240
303 302 294 283 267 263 279 278 275 275 312 272 284 282 260 244 245 240 235 229 301 297 288 268 254 244 234 174 170 219 215 216 207 196 201 205 201 202 206 201 214 227 159 231 218 226 229
306 293 292 247 286 280 271 270 264 258 264 284 293 276 267 256 244 247 236 230 294 285 271 260 249 242 236 228 223 216 209 212 210 213 205 208 210 207 209 213 220 221 214 227 242 234 230
285 291 290 269 260 277 266 246 258 259 251 243 271 288 268 256 233 240 238 229 240 275 260 252 242 233 229 224 215 215 212 212 211 212 213 215 204 206 213 214 211 224 229 241 236 216 237
300 291 288 260 252 260 242 250 255 236 252 246 245 263 262 263 248 240 236 229 235 270 256 250 235 234 227 223 224 218 208 206 210 208 211 217 219 215 211 217 218 221 227 230 242 235 227
298 297 289 265 254 257 247 250 243 242 246 234 246 237 257 266 238 241 233 230 225 249 257 244 236 237 233 233 219 219 153 209 211 190 213 225 219 220 227 229 230 239 230 234 236 234 239
302 291 287 266 256 482 505 498 495 425 245 238 242 244 230 234 267 244 236 231 228 217 266 258 242 235 236 227 230 232 233 222 189 225 231 230 226 232 247 244 236 224 226 229 223 230 237
295 284 283 277 494 482 507 588 562 600 483 339 246 235 243 239 241 261 232 236 232 224 217 223 257 240 242 232 230 231 235 233 233 236 245 251 251 255 263 254 246 254 253 249 244 245 247
303 294 277 293 461 497 566 531 525 537 561 488 293 260 251 239 240 246 258 234 233 231 223 206 193 229 240 248 250 235 229 222 214 217 222 223 219 217 223 228 233 242 246 258 258 265 269
296 296 278 376 472 581 547 528 498 475 528 509 479 285 264 235 236 239 254 260 232 238 219 209 213 209 209 204 210 201 212 213 209 210 215 219 217 219 231 235 254 277 282 290 296 298 283
297 292 283 425 473 487 515 474 484 484 533 543 479 341 279 251 238 237 227 239 271 244 228 215 208 209 212 209 211 215 210 214 219 220 217 221 224 291 316 310 301 312 314 312 301 303 292
298 289 292 450 471 463 478 460 458 450 473 536 470 362 319 262 246 231 244 240 229 211 218 232 218 214 210 150 203 211 213 213 216 217 231 318 344 410 104 425 402 301 274 281 300 300 304
297 286 366 448 471 436 462 417 407 430 425 445 415 354 347 270 244 237 245 226 232 229 216 216 217 220 217 212 211 213 212 208 213 275 284 317 316 367 407 409 407 384 386 292 277 163 274
295 285 379 474 486 430 434 482 447 420 434 453 393 362 354 300 262 245 237 236 230 230 228 223 214 205 206 207 214 208 209 207 262 299 323 326 313 312 331 349 80 278 264 120 345 304 285
293 284 470 498 449 432 453 508 453 427 466 388 362 353 343 360 277 253 232 238 222 224 220 221 208 209 210 203 209 192 205 292 275 262 257 292 317 317 319 332 332 351 350 360 358 373 383
289 283 487 519 456 444 430 486 468 437 478 364 349 369 352 333 306 269 244 237 224 212 208 208 209 210 208 209 203 205 264 240 251 238 247 253 276 282 304 331 330 322 179 108 381 400 393
285 282 531 508 528 622 493 484 423 366 363 357 347 322 318 324 320 325 239 227 227 222 214 210 209 209 210 215 181 284 240 241 175 233 228 251 212 252 259 258 264 359 392 353 345 338 334
284 283 540 476 446 404 507 448 436 355 336 337 336 307 315 321 315 342 295 235 227 218 212 214 206 203 205 192 294 225 221 218 231 235 232 248 244 237 231 257 265 265 265 218 299 321 315
283 277 547 534 468 417 433 370 353 368 343 320 327 312 304 304 311 321 335 253 231 224 223 210 218 209 198 222 251 235 223 242 235 226 237 238 247 233 238 234 238 255 249 254 258 275 259
281 273 577 448 405 409 445 381 348 329 326 315 310 310 301 292 304 240 286 311 256 239 228 222 220 181 217 229 229 222 186 212 200 228 227 237 234 240 237 232 240 241 244 251 264 243 265
279 271 474 386 382 380 320 289 311 311 308 302 301 289 295 297 287 258 323 318 306 261 249 202 193 219 285 239 227 253 230 236 213 239 241 235 226 248 245 229 232 238 232 243 193 164 244
275 270 460 392 368 382 325 341 321 306 310 317 288 288 280 292 289 173 291 314 305 290 268 218 163 220 236 229 239 226 211 182 210 213 239 211 226 219 186 232 244 243 247 233 231 233 225
277 269 298 422 359 361 363 326 300 303 290 288 288 291 286 305 310 339 294 283 299 285 242 169 171 251 231 228 197 233 182 235 188 220 188 197 153 181 234 233 175 225 218 240 264 225 237
277 267 323 587 387 345 334 324 297 310 306 308 308 185 295 280 289 284 283 277 275 275 261 234 267 226 231 230 244 227 216 209 204 209 220 168 219 213 162 149 164 177 227 246 225 231 240
278 267 315 595 442 357 339 314 308 296 301 297 304 253 295 296 282 279 273 273 265 255 232 187 228 225 238 245 210 239 243 180 238 240 176 220 199 180 237 217 186 165 225 221 212 212 235
281 267 321 367 525 408 351 335 309 309 302 304 302 294 300 286 279 276 274 253 251 234 229 208 246 223 211 233 250 236 183 212 195 209 228 183 203 232 221 177 222 186 222 202 197 231 212

GFSGBSN_2pvu_pres_003.txt.gz
Presure
303 333 320 318 312 311 316 326 343 308 288 271 279 266 262 256 260 257 265 253 260 315 233 260 233 222 212 219 213 206 211 152 210 204 211 186 204 212 215 210 197 183 186 210 201 194 201
337 313 318 304 302 290 293 292 298 315 344 308 280 279 275 271 260 261 244 270 267 294 245 276 234 237 221 211 210 208 205 193 174 184 210 217 212 201 201 215 209 208 208 203 230 209 208
348 331 230 304 300 296 283 281 272 288 292 285 353 346 297 287 283 283 279 272 266 224 282 271 254 236 221 209 207 212 211 209 144 200 213 214 217 204 204 204 203 207 198 187 181 188 221
335 296 222 305 296 293 296 288 272 267 269 282 278 303 326 311 277 289 282 271 267 265 273 263 258 237 222 211 210 211 208 214 209 202 202 210 217 217 201 195 208 208 212 204 212 215 223
325 334 233 301 301 294 264 262 278 283 274 265 266 275 291 310 298 284 281 268 268 263 262 261 253 240 217 206 216 223 216 207 213 207 201 207 212 218 215 196 195 201 211 212 215 214 228
300 283 320 125 289 283 284 261 252 258 256 267 263 242 267 285 300 285 282 267 271 253 247 244 244 238 224 216 214 213 216 203 150 163 208 210 212 212 215 203 204 203 196 207 209 217 208
299 270 295 126 294 269 256 252 256 253 253 247 251 257 241 264 306 290 283 267 257 250 233 238 226 223 223 224 223 216 214 213 215 219 217 215 216 215 216 218 197 198 206 211 212 215 221
228 335 298 259 287 279 255 259 291 342 341 266 254 242 253 237 245 296 287 261 256 243 234 237 219 273 292 285 239 233 234 228 226 221 223 220 218 215 213 216 212 222 218 216 212 214 218
294 335 222 302 302 271 272 409 489 580 518 492 398 268 245 250 248 296 294 259 256 244 244 234 219 285 281 278 267 252 246 240 236 229 227 220 219 210 213 212 212 217 220 223 226 226 227
289 333 292 311 291 268 408 491 534 560 561 554 480 410 262 244 245 255 294 258 246 243 242 231 248 282 276 271 264 256 247 242 233 230 226 218 209 216 213 212 217 216 220 223 226 231 227
344 331 315 315 295 292 479 522 546 510 530 521 491 487 304 252 241 243 276 256 246 240 239 237 241 275 267 267 249 243 239 235 235 213 225 222 216 217 221 222 227 233 238 245 253 259 259
298 299 313 309 295 402 500 481 505 486 480 484 544 473 367 260 241 226 250 261 258 242 238 229 219 276 266 256 241 240 235 236 231 224 223 224 225 230 234 240 247 248 254 268 279 288 295
307 324 319 309 292 480 516 526 489 462 439 453 524 496 476 295 248 238 229 279 261 236 232 228 218 228 263 191 239 236 234 229 231 230 224 221 231 228 226 221 232 235 236 236 220 227 154
287 323 320 309 290 526 456 495 464 422 439 449 476 531 489 367 259 243 232 243 282 245 224 226 220 212 211 214 212 214 208 206 207 208 209 201 207 215 225 222 222 239 290 310 167 185 297
293 330 315 305 327 473 445 417 437 422 398 411 471 532 489 362 270 249 235 246 245 250 216 223 222 218 211 212 208 200 204 202 205 207 210 207 217 223 219 323 316 347 396 441 285 385 399
294 326 307 308 508 472 435 417 436 409 403 399 463 493 486 356 282 255 245 218 234 265 239 215 228 224 214 210 208 206 142 208 207 208 217 210 209 281 327 325 340 348 360 371 386 349 360
296 322 305 307 487 505 445 417 408 413 440 430 430 460 477 363 320 267 243 217 231 236 262 239 227 226 220 217 212 210 212 209 208 210 208 214 243 341 339 164 346 336 329 336 348 370 348
338 320 311 311 438 595 535 438 424 399 441 420 433 479 395 363 357 271 239 228 230 222 231 259 245 219 225 209 216 218 207 207 196 205 214 248 261 238 218 252 352 83 320 337 332 328 148
339 317 308 312 457 420 592 525 440 446 436 448 383 414 389 354 387 283 232 234 224 227 228 223 219 209 209 211 212 204 207 207 213 215 225 237 233 222 264 276 276 345 116 364 374 369 354
345 310 305 311 458 421 507 486 446 446 442 372 367 368 377 354 368 297 244 236 224 230 217 221 223 219 219 215 208 209 214 205 216 244 201 246 232 241 259 261 259 271 268 202 257 226 384
322 309 301 304 338 396 447 437 463 410 369 355 353 350 320 343 358 318 274 235 227 227 224 215 217 217 213 208 214 212 204 206 242 183 185 240 240 244 253 234 235 253 249 265 264 298 311
328 288 298 296 296 393 457 472 489 386 400 364 327 321 343 332 324 319 300 246 225 232 214 217 209 209 210 212 210 202 201 224 171 240 225 220 248 225 235 227 181 243 245 261 264 101 287
320 288 297 295 290 420 441 386 377 342 340 337 325 342 319 312 313 325 270 278 232 233 220 214 209 210 212 211 198 206 209 235 227 218 172 236 231 222 221 222 234 225 231 239 250 252 255
312 308 292 292 284 387 404 324 364 337 333 326 313 316 306 309 320 330 346 160 240 233 226 216 211 214 214 200 208 211 234 178 252 186 195 219 232 239 237 215 237 229 219 228 232 236 248
303 305 296 287 283 390 369 363 318 304 327 315 304 305 298 289 296 301 323 333 228 231 226 217 212 219 165 221 215 215 256 244 216 204 174 206 183 214 205 223 240 245 224 227 220 222 225
317 290 302 283 281 397 376 344 302 320 319 306 285 286 291 295 299 304 302 319 295 232 226 222 221 159 210 221 210 184 219 218 191 168 224 207 212 197 205 230 163 218 219 216 238 232 229
317 289 332 287 277 360 383 347 330 313 317 294 294 293 261 281 280 286 312 300 314 253 233 232 226 166 220 229 257 215 248 196 187 222 177 233 214 197 222 203 190 208 209 225 225 214 226
316 302 310 289 279 304 403 344 327 323 326 304 303 296 289 291 291 286 292 306 299 306 284 241 239 214 236 226 258 217 254 236 184 198 231 196 152 195 177 235 204 177 228 223 216 188 228
318 307 277 300 275 272 410 389 342 319 311 301 301 299 291 301 303 296 285 305 296 294 276 258 254 179 269 273 214 193 243 239 212 211 200 230 185 218 212 219 220 166 220 220 213 210 216

GFSGBSN_2pvu_pres_006.txt.gz
Presure
236 126 188 346 338 323 299 290 291 285 296 315 331 296 296 279 273 255 251 261 245 232 241 243 238 256 224 256 211 225 217 203 217 212 164 166 148 181 220 210 216 220 211 211 217 186 185
146 277 269 338 331 319 314 303 292 282 282 281 298 333 276 278 273 274 262 261 254 239 237 240 250 240 254 275 237 216 224 220 202 209 191 203 135 186 165 216 210 214 212 214 210 209 225
152 268 310 286 341 315 308 311 298 299 283 278 268 284 294 313 271 260 260 267 252 253 252 246 248 258 262 289 209 224 220 220 216 203 211 205 213 216 210 209 217 157 206 199 215 212 210
153 303 309 288 347 300 299 295 304 299 266 295 280 271 272 283 287 297 263 253 267 261 258 265 257 267 253 305 230 238 226 218 215 212 207 211 209 200 146 206 190 212 220 207 207 211 209
153 314 280 300 345 326 296 295 282 269 258 257 253 269 276 267 279 277 314 301 268 269 262 256 253 265 255 296 271 253 226 222 217 206 209 213 205 208 178 194 164 204 219 217 203 206 205
301 278 275 288 331 296 295 293 276 256 253 254 256 255 248 265 268 270 274 312 321 297 278 273 279 259 258 279 234 260 241 223 223 215 205 213 208 209 208 210 206 151 214 216 222 205 204
274 289 259 342 322 308 295 303 265 290 185 510 310 295 265 254 252 266 266 273 308 294 267 274 272 262 260 272 261 261 239 230 222 214 207 203 205 206 207 212 199 198 203 212 217 218 204
164 295 301 342 325 309 314 283 440 505 496 601 556 665 317 273 253 255 268 270 287 286 278 272 264 255 263 254 257 248 239 233 225 216 213 209 207 210 211 208 212 208 207 211 217 221 224
155 143 300 338 326 316 310 394 501 498 555 548 521 495 504 309 266 251 266 255 277 280 277 266 262 265 256 253 248 242 237 231 224 210 207 214 218 213 209 212 209 207 217 215 220 218 222
274 157 331 339 323 326 300 522 499 526 533 510 507 525 504 468 298 259 251 252 266 281 276 263 259 255 242 238 237 234 234 231 222 216 214 216 220 214 214 213 217 221 223 79 138 216 225
288 275 338 314 315 318 424 496 467 465 503 489 499 525 491 460 315 261 249 250 262 277 278 261 259 244 231 234 227 219 215 213 219 220 217 220 219 219 220 223 226 227 228 227 225 231 196
300 287 328 335 320 313 527 468 440 422 446 447 450 482 553 458 384 264 251 245 261 281 272 261 251 243 229 234 221 214 281 277 270 272 249 242 237 237 238 239 239 237 234 228 229 232 238
307 292 319 341 328 308 458 477 420 436 419 411 434 471 526 457 365 262 253 244 259 291 279 258 238 234 229 220 277 278 273 267 267 266 264 266 258 247 240 234 235 233 231 237 244 251 245
276 301 336 351 331 306 408 444 413 421 402 414 419 473 544 437 356 262 254 248 247 292 257 239 234 233 221 284 277 272 265 263 260 260 248 231 231 224 223 227 233 232 219 220 225 229 238
300 309 332 353 332 304 404 457 428 414 426 404 423 505 564 457 347 264 254 253 244 288 257 236 232 227 220 285 274 267 258 254 243 224 225 219 215 209 212 217 219 220 225 345 340 340 338
304 296 327 332 337 309 407 478 444 406 389 408 424 487 487 456 330 261 255 252 228 281 232 232 230 225 223 247 255 228 227 222 216 210 209 209 208 214 218 204 248 257 294 345 346 312 367
305 295 340 321 341 315 537 483 445 403 425 409 418 435 480 366 324 259 254 219 224 281 237 227 229 229 219 214 215 216 214 215 213 210 210 213 215 198 214 246 237 282 372 368 319 303 341
303 293 323 326 339 314 545 473 422 436 420 435 427 465 489 338 318 261 250 206 230 269 243 229 223 230 225 218 214 217 214 209 210 164 213 211 204 259 245 235 250 251 247 231 279 351 356
284 289 314 316 333 308 407 470 439 448 430 408 415 485 422 330 323 282 167 206 234 261 247 236 224 218 225 217 215 210 215 213 216 218 205 221 228 242 232 232 226 250 84 251 246 94 391
191 286 314 319 319 309 405 456 461 430 398 384 376 462 380 325 236 309 246 228 227 227 262 252 231 220 221 221 224 222 218 218 212 207 211 239 204 203 231 230 225 243 225 186 239 253 336
254 291 320 311 297 317 402 455 424 393 383 380 384 485 422 324 352 299 242 238 227 222 252 262 240 225 222 224 219 209 216 215 210 209 229 226 183 223 235 217 223 236 241 249 267 270 286
105 288 317 319 292 320 349 443 395 396 398 403 376 426 344 337 353 298 236 236 228 216 228 225 254 232 218 212 210 218 215 217 208 220 229 218 226 241 231 230 224 223 228 234 247 257 269
254 286 317 310 292 313 291 413 367 402 350 401 384 328 334 348 342 280 198 234 231 226 226 224 240 222 229 220 221 212 219 205 217 232 232 235 204 239 235 246 214 228 225 218 236 206 257
128 278 317 306 299 309 287 367 344 335 361 347 343 336 339 340 344 305 252 212 228 222 228 216 218 220 224 223 214 219 211 203 200 240 190 181 208 215 225 233 227 227 229 223 240 231 243
248 279 301 297 330 307 290 303 357 334 303 355 344 339 330 317 326 281 258 243 163 220 228 220 213 220 220 215 216 208 208 213 205 198 171 184 214 226 239 226 220 223 224 231 232 227 231
241 283 295 292 292 285 287 277 356 325 330 338 283 330 332 325 327 331 336 254 220 224 229 218 218 214 217 213 212 206 210 216 226 219 196 231 211 213 216 210 223 210 215 214 226 217 218
253 281 295 295 296 271 289 278 295 339 312 328 306 301 309 253 307 308 327 266 233 232 234 226 220 207 169 223 212 210 214 211 236 174 190 227 219 208 211 202 165 210 210 217 220 219 229
248 281 306 303 287 312 292 276 256 348 346 330 307 305 302 302 306 303 312 335 326 233 233 229 221 220 221 222 221 199 217 213 222 195 223 216 199 232 214 214 147 178 224 207 216 216 223
287 280 294 317 298 283 296 278 255 358 335 309 315 305 310 282 292 299 307 314 320 246 235 231 226 227 222 222 212 211 221 183 229 195 177 202 222 214 223 213 182 173 223 216 214 222 212

GFSGBSN_2pvu_pres_009.txt.gz
Presure
252 290 226 247 324 365 342 351 310 322 300 294 293 293 301 308 302 322 275 275 250 245 247 231 237 235 249 257 238 221 232 216 224 207 201 208 200 203 203 205 207 207 199 206 212 204 184
248 136 293 153 338 353 341 337 311 308 304 301 288 286 288 296 326 294 305 313 271 246 260 236 234 232 234 226 237 244 212 224 224 219 216 203 203 203 204 204 201 203 207 205 201 207 204
246 262 223 258 334 331 338 320 292 291 293 301 302 291 279 283 291 326 282 291 289 291 240 241 253 241 248 231 237 240 234 217 233 214 216 221 205 199 204 210 207 138 209 209 214 215 210
135 277 154 149 315 299 342 317 293 292 289 292 295 285 269 274 279 288 311 287 282 276 267 255 234 243 224 224 241 244 251 221 218 226 222 216 216 210 206 209 214 143 199 198 207 204 200
158 192 254 143 324 306 338 334 308 283 267 261 263 261 263 256 255 276 283 307 276 257 272 243 261 243 251 236 240 236 245 226 241 224 246 214 220 212 206 198 201 208 169 167 210 196 188
223 238 185 275 309 326 341 332 331 292 397 519 480 297 279 253 248 248 273 280 296 267 259 241 255 258 242 248 237 233 244 244 222 239 230 231 215 216 216 212 204 203 210 207 217 210 210
222 228 261 277 306 306 321 333 306 388 543 542 540 540 549 302 259 246 245 270 278 290 282 255 254 262 256 238 240 248 251 260 271 320 275 239 222 219 218 213 206 206 204 207 203 208 209
220 171 310 312 310 338 323 335 302 501 468 484 472 474 544 589 312 262 248 245 272 272 255 314 280 258 249 255 254 251 257 252 247 288 263 235 229 219 217 214 211 205 208 207 206 195 203
203 232 306 316 303 341 340 336 313 439 521 453 493 505 502 536 491 299 254 250 249 251 260 274 309 299 257 261 259 266 254 270 242 269 235 259 236 218 217 216 212 203 209 210 208 210 209
150 250 296 308 303 335 329 317 446 564 441 422 468 499 501 514 475 395 279 248 239 255 259 260 289 288 285 280 272 278 276 256 259 258 252 249 243 227 217 217 217 213 206 206 205 208 212
215 261 312 314 310 341 339 308 595 475 441 426 451 456 476 446 531 465 292 257 242 243 258 260 287 281 275 269 262 262 261 253 256 253 236 252 238 231 223 218 212 211 210 212 214 206 76
139 254 299 300 316 337 339 436 588 453 418 408 422 426 439 498 510 470 295 272 247 239 257 253 287 275 267 263 260 254 253 249 239 246 248 236 237 228 226 222 210 209 208 213 217 220 221
207 147 289 259 323 351 337 530 488 445 425 407 403 426 446 465 485 410 308 283 249 240 272 260 282 266 264 258 257 254 243 241 239 236 235 235 230 227 222 216 214 213 211 214 218 219 225
213 289 289 259 320 339 333 606 477 441 406 422 411 435 478 496 449 364 315 277 254 245 260 271 276 263 258 253 251 239 236 234 231 232 228 223 218 219 222 218 220 218 222 236 269 264 259
284 281 273 315 322 339 332 612 458 422 403 402 418 456 537 589 433 353 306 258 263 247 244 279 274 261 255 245 238 233 224 229 232 222 212 281 279 279 280 271 265 256 233 231 227 225 227
287 281 269 315 321 335 332 473 440 422 409 422 429 475 498 465 422 330 306 260 251 240 246 285 256 250 244 239 240 234 227 227 284 277 269 259 247 240 236 234 224 216 214 220 217 239 309
284 271 280 299 319 327 335 476 456 415 409 420 435 455 461 433 351 331 293 253 247 241 270 269 254 241 235 234 227 219 283 272 258 249 240 232 234 225 219 208 206 210 234 251 266 265 301
281 280 303 287 315 329 337 483 455 401 402 429 424 457 464 470 338 322 261 250 238 241 279 253 240 232 227 225 282 293 273 240 237 232 227 220 216 213 221 206 233 231 246 244 242 268 292
282 273 291 292 303 330 338 412 396 391 389 404 460 491 483 365 296 161 239 247 221 257 271 249 236 227 217 221 248 244 238 235 211 219 217 210 206 206 208 212 238 230 228 234 237 255 233
271 266 244 288 296 326 298 360 361 403 389 403 447 471 453 345 254 264 247 244 221 271 254 233 229 221 216 213 213 213 219 219 218 217 216 203 197 226 227 242 229 225 221 228 184 249 269
270 265 292 296 294 319 309 316 370 409 412 418 495 420 325 324 307 257 252 241 213 270 245 232 228 220 219 221 221 214 215 217 220 220 199 203 232 229 236 219 225 216 221 232 227 129 240
269 271 290 292 280 284 338 315 332 371 433 462 394 385 341 311 313 258 229 214 232 264 244 236 226 219 225 222 218 216 225 220 219 201 196 228 225 227 239 229 228 224 234 210 236 239 238
278 165 278 287 278 308 307 296 305 364 415 506 398 377 336 321 310 244 223 198 230 257 250 239 235 222 219 222 224 225 219 214 215 193 235 254 219 189 229 236 219 221 208 224 224 226 241
255 168 271 275 283 325 292 319 308 288 381 374 419 381 334 328 319 251 239 233 231 227 262 251 240 231 225 225 222 217 214 217 214 205 227 219 201 202 221 226 206 216 156 217 226 224 234
289 275 265 278 275 271 306 261 270 295 303 347 374 321 359 329 352 290 241 227 231 220 215 258 256 235 230 234 213 215 218 220 206 189 238 205 209 211 227 221 214 188 199 124 199 216 214
257 278 120 277 267 287 327 275 301 292 270 368 354 352 338 356 335 322 250 245 232 166 213 228 223 249 227 230 221 215 221 204 201 204 165 211 228 207 222 186 204 199 213 209 220 230 223
282 261 157 276 148 277 268 312 306 274 281 277 354 326 344 323 327 322 254 242 253 241 230 227 224 225 224 226 156 217 202 209 210 212 228 224 218 227 214 199 215 208 208 222 218 214 231
278 263 278 263 127 273 266 298 323 263 280 269 346 315 320 324 330 334 290 250 221 237 233 235 224 223 220 222 219 218 204 215 212 217 212 238 198 159 213 217 208 214 218 221 216 212 215
263 270 177 279 275 275 281 304 322 266 280 269 359 339 304 313 310 314 316 252 252 236 227 233 217 228 230 222 192 212 207 214 208 219 229 241 221 190 238 216 138 161 223 216 213 237 225

GFSGBSN_2pvu_pres_012.txt.gz
Presure
124 122 211 244 249 138 283 291 326 309 346 329 302 296 297 299 295 294 313 315 332 296 259 255 249 233 240 253 244 227 230 226 208 211 228 212 204 203 192 187 188 195 197 196 184 187 176
126 135 155 229 155 291 284 301 326 331 216 308 309 312 288 292 295 292 289 303 319 297 286 253 251 247 243 236 254 234 229 226 216 219 219 231 209 209 209 203 194 189 189 186 182 178 184
113 129 134 151 248 287 300 302 341 315 296 299 313 317 297 284 284 287 288 293 295 288 292 264 254 264 243 237 243 235 243 233 224 240 222 226 212 212 205 207 205 200 198 200 196 198 188
128 167 222 230 258 153 277 311 350 316 355 334 272 274 277 279 302 284 284 283 309 294 311 277 264 254 238 241 246 232 230 233 242 227 212 233 216 223 205 206 206 201 204 205 207 206 208
136 131 189 174 270 293 309 311 330 309 320 337 555 619 381 319 301 278 281 280 277 313 290 307 269 264 261 235 231 242 222 234 228 244 239 217 232 219 227 197 204 204 194 201 199 196 204
126 131 124 137 171 289 315 339 318 334 436 527 465 428 430 445 560 310 275 258 260 275 312 285 304 260 264 254 236 242 235 223 223 232 230 219 242 219 235 222 212 203 206 205 201 180 175
146 122 220 136 139 269 315 336 310 320 440 505 531 541 468 462 507 542 283 280 269 277 268 293 272 281 291 283 242 245 230 229 230 233 235 237 233 246 219 219 219 218 218 210 206 205 205
85 135 211 149 246 305 327 337 347 498 536 494 451 438 445 497 509 562 362 265 262 257 267 265 282 268 268 268 287 247 232 242 229 227 227 239 242 249 238 219 220 231 219 218 218 217 214
133 185 228 240 285 330 336 329 331 555 532 454 459 445 468 505 497 536 495 265 260 252 251 260 285 270 261 266 253 263 241 232 230 229 229 237 235 237 241 218 237 223 235 228 222 217 213
190 218 182 246 313 301 353 318 340 579 457 426 413 441 430 476 516 517 478 267 259 252 240 254 266 285 262 262 256 253 245 241 236 239 244 239 241 238 236 215 279 256 225 242 216 218 219
217 145 202 287 293 332 338 356 592 460 436 414 426 414 430 423 522 544 458 282 254 252 251 253 258 266 276 285 246 262 248 252 242 233 235 240 237 252 260 285 271 257 221 233 235 219 220
165 221 235 202 290 326 344 353 520 435 417 420 414 406 423 444 493 457 398 360 265 249 244 245 259 261 269 271 310 267 254 250 251 253 253 251 254 268 270 264 251 241 253 236 229 223 113
207 194 238 285 292 324 367 346 467 438 421 407 412 416 431 461 497 453 358 383 281 254 245 243 251 256 259 291 286 284 282 249 254 256 272 268 259 255 259 254 249 248 243 240 244 230 214
214 167 240 279 291 309 350 327 417 414 419 423 441 430 475 480 510 383 355 344 278 256 245 246 236 257 254 284 277 270 272 276 272 265 255 248 251 255 248 238 235 242 242 240 232 225 220
217 235 208 283 286 303 317 328 320 414 400 432 417 477 488 495 446 353 350 339 286 251 249 240 236 245 292 277 269 263 260 265 253 247 251 241 235 240 240 240 238 233 230 228 226 224 218
221 242 135 290 293 302 306 351 331 423 402 405 437 487 555 534 353 343 334 319 281 253 245 226 245 267 268 264 259 256 254 254 250 238 238 239 236 236 235 234 220 203 213 211 214 227 226
221 247 233 302 281 304 338 321 330 400 412 417 476 465 534 421 364 341 326 308 267 250 241 232 240 278 268 259 255 246 247 241 237 235 232 230 228 226 211 211 237 247 238 234 229 227 231
220 248 279 288 278 141 310 322 341 416 423 417 507 466 475 364 344 344 316 287 257 248 228 242 285 272 250 250 245 238 239 237 230 230 226 219 265 255 244 239 229 224 222 231 238 251 242
235 296 278 281 270 294 311 307 351 390 459 447 519 492 361 355 350 344 305 269 249 237 243 249 267 253 242 238 236 234 232 229 235 270 257 251 245 239 227 216 217 218 215 215 235 233 230
240 134 270 290 270 285 313 297 327 308 480 501 451 445 339 343 347 306 268 251 208 230 260 273 249 240 236 235 233 229 276 266 256 252 241 235 227 220 216 178 229 241 241 232 223 236 226
266 286 271 241 261 292 296 304 319 335 523 488 498 466 406 337 307 279 257 250 242 239 290 249 238 231 233 229 249 273 258 247 245 235 229 211 215 214 208 228 215 240 223 224 222 221 239
297 254 278 290 266 263 292 296 300 296 306 476 451 383 353 337 292 272 253 233 246 280 250 238 232 230 224 219 218 214 213 213 218 209 217 208 223 227 233 223 245 227 223 221 217 226 91
285 256 273 280 269 266 278 290 294 302 317 299 404 387 372 308 274 257 237 218 259 270 250 236 230 228 225 219 217 210 215 218 213 218 213 207 209 237 238 238 226 215 216 211 215 218 231
258 278 284 272 279 261 273 266 288 284 274 309 358 392 372 312 272 247 236 208 228 236 244 232 227 229 223 224 219 219 214 218 221 212 216 207 223 222 228 206 223 213 213 213 222 233 231
265 293 289 266 282 250 266 272 277 284 318 270 293 406 382 299 314 240 231 230 239 227 247 234 226 230 227 223 220 219 218 229 215 214 205 231 224 171 192 228 221 173 208 207 218 84 110
291 288 276 287 280 252 292 271 269 279 285 319 283 267 407 356 348 256 242 240 232 196 165 240 227 227 229 218 220 224 224 213 214 203 200 222 212 175 235 221 205 166 215 212 214 215 226
277 279 276 272 217 246 283 268 288 276 266 297 301 291 265 389 379 338 258 251 228 235 230 251 238 236 233 229 219 225 224 226 217 205 220 227 203 224 212 224 215 205 222 209 207 220 207
273 291 279 273 276 267 273 198 290 278 257 269 298 272 285 271 370 366 324 249 252 241 242 218 254 247 230 233 228 221 232 228 209 208 217 212 234 169 202 228 207 186 219 216 221 215 212
277 287 281 266 283 248 270 274 290 279 274 277 304 301 281 263 299 350 351 276 257 256 247 236 236 223 259 242 238 227 226 217 204 205 213 225 228 222 195 187 213 212 219 212 224 248 222

GFSGBSN_2pvu_pres_015.txt.gz
Presure
134 129 153 130 135 93 267 291 290 281 340 330 344 342 337 314 314 303 308 305 308 318 329 346 263 263 248 239 245 212 165 214 177 234 212 219 220 213 209 179 183 185 176 187 185 174 187
104 110 149 136 185 175 274 305 295 318 336 377 321 297 292 312 324 269 299 301 299 302 312 326 262 263 249 252 232 249 229 196 203 205 237 211 218 216 210 214 180 185 191 190 180 183 190
114 126 168 173 225 209 230 304 309 357 368 337 464 458 447 325 301 329 307 296 301 295 318 308 317 274 261 249 240 227 246 220 193 202 200 211 218 212 204 208 201 199 199 186 200 189 182
114 99 130 220 225 246 198 301 300 351 341 481 494 441 445 555 448 309 324 304 295 297 291 311 296 326 264 255 250 238 228 238 234 213 223 204 174 215 219 210 209 203 200 196 192 186 186
121 128 148 222 225 263 268 309 293 335 384 491 526 518 532 494 459 391 301 282 293 294 293 295 311 316 277 275 249 240 245 241 222 241 218 228 207 231 210 224 218 211 206 203 203 199 192
204 151 178 224 229 266 288 306 342 369 567 548 535 532 523 516 536 435 342 284 280 288 288 286 308 311 317 257 250 246 240 246 226 228 247 205 223 219 227 219 179 214 207 214 206 206 205
218 154 211 180 241 263 296 300 351 352 583 490 445 449 470 516 451 503 419 307 273 280 288 290 290 296 302 289 277 238 245 247 239 245 227 238 234 231 223 226 241 217 228 218 214 207 213
122 131 218 217 248 264 295 298 355 345 482 454 428 427 439 471 507 494 525 413 286 273 271 284 279 295 287 308 283 269 246 245 237 232 231 240 230 236 239 229 217 214 231 219 227 215 214
139 212 224 230 252 264 306 304 398 344 480 447 432 417 418 450 478 510 519 420 316 271 270 273 272 295 278 280 300 270 253 242 249 234 237 239 222 231 226 227 240 240 235 229 223 226 224
196 123 222 230 232 264 302 298 350 336 428 438 425 419 416 433 422 520 536 494 440 272 267 272 275 272 286 277 282 301 260 234 249 232 232 228 238 224 221 224 234 238 235 227 258 236 245
139 126 223 228 277 270 294 326 346 336 418 409 418 419 427 431 453 526 521 462 381 275 270 269 253 269 298 275 270 278 292 245 255 257 233 232 236 233 231 219 229 232 235 247 254 258 251
130 189 225 228 277 302 290 304 331 343 404 418 408 431 459 449 459 507 483 431 346 271 260 265 258 268 254 303 270 263 262 271 278 283 254 238 234 230 227 224 228 233 238 239 246 251 247
191 205 225 229 277 315 281 297 329 345 415 423 421 453 464 474 486 533 408 383 270 278 266 254 246 254 262 276 284 264 261 257 250 253 262 239 229 244 239 232 238 241 246 251 256 291 283
121 188 182 231 279 306 289 283 333 346 438 427 449 483 558 493 508 389 383 348 301 266 255 251 248 248 255 266 265 279 271 259 258 248 249 243 243 235 231 236 240 243 252 270 276 258 247
116 183 217 235 279 167 289 290 341 355 475 444 487 523 509 518 393 372 358 329 282 261 251 248 240 235 258 250 269 253 307 297 252 255 258 247 250 248 245 250 269 279 260 255 251 241 234
204 195 216 240 277 302 303 283 346 364 474 469 501 575 424 381 392 366 343 333 268 258 246 241 242 233 243 256 261 284 281 278 278 282 251 253 257 256 270 261 254 254 246 243 241 233 233
202 203 216 254 293 299 305 293 329 357 500 511 500 398 362 354 369 359 185 342 262 252 246 240 236 231 254 249 277 270 266 266 265 267 269 274 269 261 249 237 236 235 233 234 229 222 216
129 203 214 263 292 299 305 285 314 335 575 542 497 372 366 341 339 348 362 291 265 249 248 249 230 243 244 289 275 271 265 259 258 255 246 243 245 243 236 234 225 227 219 211 212 235 241
190 205 212 268 270 297 302 283 312 337 463 540 402 375 364 338 359 356 327 290 267 249 247 242 236 237 285 269 257 250 253 250 247 244 236 233 232 228 231 225 217 217 237 236 228 218 221
202 215 215 275 267 253 297 292 319 319 349 430 385 368 331 339 353 346 300 270 251 253 240 237 240 286 265 250 247 243 239 239 239 236 229 229 219 231 251 240 236 229 223 228 225 217 220
195 219 250 283 274 283 282 287 270 279 340 330 364 376 369 355 326 294 280 267 251 243 243 242 290 258 248 243 239 238 239 235 230 222 255 263 254 238 229 229 225 218 228 208 234 224 219
193 227 270 284 279 280 278 283 271 303 296 325 375 389 350 378 296 279 219 238 243 237 258 283 251 245 240 239 240 232 227 283 266 259 251 243 225 229 219 232 204 216 220 231 228 226 215
220 253 308 289 280 282 286 276 271 291 293 285 281 377 360 281 254 245 242 228 241 260 268 249 240 238 238 235 285 284 270 260 247 244 236 227 216 223 234 226 250 240 231 229 213 215 224
236 268 297 290 280 287 284 221 260 269 298 288 299 289 380 342 257 243 241 233 235 261 248 243 240 234 232 260 254 222 216 225 219 213 214 213 224 230 216 248 234 229 222 218 222 207 209
261 293 292 286 97 290 214 287 256 261 282 294 300 305 283 411 274 251 245 236 232 261 249 168 235 233 231 224 216 217 214 212 213 208 223 221 238 227 222 200 231 223 211 214 184 204 210
272 294 313 232 276 297 281 265 254 279 225 280 297 298 274 282 411 307 251 243 241 230 249 240 231 230 234 212 223 210 216 215 211 222 211 229 228 218 224 205 203 221 207 211 226 213 95
288 292 289 283 279 274 273 292 273 266 267 279 279 280 319 304 268 340 370 252 232 249 225 246 237 233 227 227 212 222 216 216 216 219 210 236 222 217 211 239 225 224 201 217 205 211 216
291 284 281 292 290 278 286 292 276 250 273 281 290 283 310 304 314 266 295 352 252 233 237 238 239 228 233 227 226 219 221 221 223 209 212 210 224 211 182 220 197 219 215 216 198 208 209
291 283 267 292 298 290 298 274 287 272 288 247 293 298 293 288 295 305 271 295 391 252 245 236 238 229 230 226 230 229 217 224 226 222 209 201 233 228 232 219 205 200 200 209 221 210 219

GFSGBSN_2pvu_pres_021.txt.gz
Presure
153 132 178 213 194 141 183 226 245 244 287 306 326 348 368 566 536 509 522 318 247 319 317 330 315 342 355 284 260 261 240 225 253 227 199 201 175 192 199 230 222 204 186 179 171 178 177
139 177 215 154 210 180 173 231 249 243 294 308 341 351 438 496 544 510 493 540 436 322 335 309 318 315 336 291 264 254 264 233 260 248 238 199 196 187 203 155 229 218 183 188 186 176 169
131 141 166 136 196 178 219 234 249 245 290 318 339 342 458 443 469 509 519 118 441 355 323 310 285 307 326 340 267 261 254 240 251 258 234 207 201 206 163 220 154 217 201 193 175 180 181
140 149 153 221 191 131 220 228 250 266 294 327 340 448 447 430 463 473 538 527 494 382 320 310 304 302 321 340 285 255 251 249 242 259 251 230 213 185 231 207 169 218 217 206 196 199 189
133 147 156 225 196 185 187 228 250 278 304 327 351 460 432 422 431 459 487 523 466 385 321 311 293 301 310 322 329 267 256 249 236 250 254 244 225 194 192 212 147 159 222 218 216 206 194
144 178 128 228 210 189 225 233 247 283 309 336 368 462 422 422 423 450 468 529 477 399 322 315 301 304 298 307 340 276 261 259 245 249 260 240 234 206 192 222 189 208 169 172 222 220 217
139 135 107 230 196 235 226 234 246 285 343 353 486 445 422 420 426 449 463 537 509 395 318 307 309 294 286 311 329 298 264 247 251 245 247 251 217 201 197 185 205 188 171 171 225 166 184
130 142 115 206 193 182 228 227 248 293 341 367 456 445 431 420 443 466 464 539 441 489 316 297 291 287 284 302 323 311 275 258 241 248 251 252 256 254 223 198 204 208 187 168 171 216 222
136 126 109 173 193 196 228 184 248 301 350 484 464 458 435 441 454 457 467 535 434 431 318 294 284 288 280 289 303 321 299 265 251 244 253 242 238 224 242 217 182 213 203 191 208 176 176
111 134 134 241 96 193 196 231 250 306 365 514 482 457 451 458 441 448 475 529 243 407 310 296 282 280 280 280 297 317 301 295 258 245 241 246 233 230 239 228 235 198 211 197 180 227 188
149 141 229 231 189 215 225 234 301 320 380 515 499 484 442 439 442 463 536 418 538 329 303 284 280 277 277 280 288 319 305 294 287 253 246 238 239 240 241 242 243 230 194 199 204 197 229
178 190 157 249 242 215 212 228 313 341 372 537 513 526 476 479 447 503 418 530 430 322 297 287 279 273 148 281 290 303 303 300 295 268 251 249 239 236 244 229 223 246 233 234 237 200 195
155 134 217 249 193 237 228 206 308 353 465 566 554 525 500 485 514 433 450 463 284 310 289 286 269 275 273 270 293 291 291 289 288 283 282 253 238 235 239 240 230 234 229 233 239 220 211
149 133 208 191 230 238 231 172 307 340 449 441 425 482 502 439 400 438 444 411 315 301 293 267 255 262 269 266 287 288 291 281 275 274 279 274 244 240 239 221 231 240 231 229 232 238 209
151 135 205 213 224 216 230 175 304 322 432 399 376 461 433 403 384 370 371 322 208 284 265 267 268 270 263 290 287 281 277 286 287 271 271 274 270 240 238 243 241 247 244 231 227 241 227
180 215 136 203 211 159 216 133 301 287 370 385 373 397 390 376 356 367 331 290 261 258 256 269 256 255 260 283 279 270 272 284 291 286 271 263 265 269 268 272 237 232 235 233 239 233 229
165 165 198 201 191 202 227 275 303 305 302 387 391 371 373 382 372 313 275 269 268 257 252 251 250 264 256 282 286 276 270 272 274 286 282 264 257 269 267 237 258 253 239 229 238 241 239
199 186 193 206 220 244 267 281 302 281 301 398 388 380 362 314 304 295 267 263 263 254 247 243 244 260 258 266 273 288 279 261 261 264 269 276 277 282 272 253 254 253 255 254 250 252 251
130 191 196 218 153 305 289 283 298 304 301 339 371 394 320 303 270 277 273 271 258 255 251 247 239 250 252 250 251 253 258 265 268 255 255 252 253 248 253 256 260 264 265 260 254 251 251
127 194 203 227 296 300 281 284 292 281 297 296 333 398 312 271 280 267 271 249 255 248 250 244 237 242 250 249 267 281 278 265 249 252 260 253 248 246 246 250 252 251 245 243 245 250 258
122 193 213 273 293 295 207 281 292 281 269 280 321 346 283 301 288 275 269 270 253 246 238 235 240 246 248 287 277 267 269 272 274 274 274 269 262 246 245 254 253 243 243 255 256 244 233
128 195 231 291 286 292 280 280 294 282 297 302 286 309 274 286 283 273 260 268 256 244 245 240 245 234 281 276 267 258 257 259 261 263 264 263 263 263 266 269 262 258 252 241 234 226 230
127 214 298 285 295 254 280 282 293 280 285 291 267 291 297 266 259 262 248 251 243 241 247 249 234 256 278 266 258 257 256 254 255 256 252 251 248 250 248 247 243 236 230 225 227 243 229
127 278 295 263 292 164 281 273 291 279 280 298 284 276 315 290 278 259 248 247 252 248 244 249 257 181 267 260 259 253 257 254 253 255 257 246 237 235 234 227 221 226 242 241 223 208 218
132 299 291 303 298 217 283 288 293 277 279 274 285 290 291 304 309 273 271 262 257 248 246 256 273 267 258 195 252 248 244 243 242 240 237 233 228 226 233 251 254 241 209 209 219 239 237
292 297 296 306 306 206 293 292 298 280 278 277 266 288 287 300 286 291 290 271 261 242 252 244 277 257 257 245 237 233 228 225 228 231 230 239 286 262 255 232 219 207 234 234 243 234 209
312 310 311 315 299 299 298 295 295 277 277 276 284 277 294 288 293 296 322 300 302 269 263 250 269 255 251 239 235 249 264 283 284 287 292 276 245 213 222 210 222 239 196 240 235 210 214
302 256 312 308 294 302 283 296 293 283 278 271 276 278 282 307 303 277 277 317 299 321 283 264 255 255 257 240 237 261 284 249 293 252 220 219 217 220 216 212 232 246 253 223 233 212 202
327 168 332 232 300 286 299 281 292 285 281 274 282 292 278 301 295 286 284 293 308 273 287 321 264 252 258 249 232 237 241 233 222 229 221 215 221 217 217 231 216 215 178 219 203 214 212

GFSGBSN_2pvu_pres_024.txt.gz
Presure
146 139 132 126 134 230 188 190 227 196 241 293 289 331 331 342 427 454 449 488 470 503 425 363 323 328 337 332 356 314 282 280 267 208 254 218 207 204 209 182 185 167 192 188 188 193 189
123 132 128 157 122 239 186 214 229 225 244 323 331 322 347 411 454 436 436 478 483 477 424 377 322 332 322 316 336 334 292 279 268 258 260 231 214 208 205 185 185 178 163 193 200 200 196
146 129 121 133 125 197 179 238 232 243 272 318 331 332 325 470 437 421 430 457 473 303 103 381 323 331 317 310 338 332 298 280 273 261 231 249 222 214 210 205 151 193 183 175 196 212 205
126 140 170 161 126 146 188 107 232 257 289 327 333 348 467 465 430 415 422 449 484 487 500 380 321 329 308 306 318 288 314 280 264 261 253 258 237 217 211 208 185 195 194 179 199 187 191
133 133 152 171 177 99 204 232 232 245 315 339 334 438 459 418 432 421 419 447 481 478 472 376 317 318 310 305 298 309 321 277 258 252 255 249 251 208 202 209 200 205 188 177 176 172 199
127 164 168 169 217 213 200 211 237 247 324 349 372 463 438 433 433 420 429 451 475 465 436 367 319 304 301 300 301 318 334 284 254 253 252 248 238 251 235 213 199 189 198 180 158 154 163
125 150 145 174 134 113 207 216 245 254 337 360 508 486 472 444 431 420 458 459 529 451 416 354 323 286 293 292 302 320 340 277 254 248 248 260 248 232 240 236 232 217 189 197 170 185 200
121 125 140 183 135 156 209 231 249 268 351 385 508 469 468 443 453 446 447 464 516 468 385 341 315 296 298 294 299 306 327 276 257 252 251 261 247 250 239 242 233 236 202 188 186 150 180
126 150 133 145 146 180 198 237 258 313 366 521 504 470 435 461 448 429 460 491 496 470 376 328 310 292 294 293 289 307 341 278 255 251 251 257 259 228 245 248 227 236 217 196 213 190 167
145 143 136 176 143 202 221 233 275 316 368 562 528 493 485 451 451 461 482 526 453 393 348 313 296 299 288 283 280 299 319 302 261 252 245 252 248 246 230 251 247 235 220 213 201 185 185
157 130 144 197 101 203 220 241 154 331 368 544 546 540 492 473 463 476 539 424 430 361 328 298 299 298 287 281 288 307 313 299 260 257 250 249 252 246 241 249 252 239 220 223 200 195 180
143 123 156 162 193 201 219 243 300 312 352 486 444 515 492 493 482 484 424 439 375 338 310 300 225 233 285 281 279 301 324 305 290 257 254 262 254 253 246 229 251 250 234 216 187 197 183
146 120 164 187 195 157 217 255 294 308 368 425 433 407 444 420 425 419 399 387 349 315 296 286 273 287 284 277 273 298 315 301 303 264 256 258 255 258 258 257 243 245 245 241 219 202 196
160 112 138 145 144 200 217 286 292 297 371 401 412 403 446 501 469 430 380 356 323 302 293 299 275 276 275 272 282 289 296 323 298 295 261 260 254 257 244 244 245 251 249 238 237 236 234
156 127 131 163 182 198 218 290 311 300 289 391 401 393 320 410 387 364 333 301 291 305 292 261 265 270 272 270 280 285 292 311 305 298 295 261 263 254 254 238 245 246 226 227 228 240 242
147 117 127 223 128 201 222 286 294 155 315 313 397 329 318 305 298 295 285 276 269 254 260 263 264 267 268 266 275 287 289 288 297 296 285 282 278 257 250 244 241 237 234 240 249 249 227
110 134 124 250 189 205 267 286 287 159 313 422 379 321 321 295 268 279 271 272 275 273 265 274 271 270 270 292 290 285 287 293 275 282 281 287 286 286 281 253 246 239 238 228 231 235 236
137 153 127 138 198 210 293 283 281 162 310 417 359 326 309 270 285 288 270 266 258 257 257 253 262 261 260 293 281 275 267 274 287 278 268 273 270 275 275 277 258 242 237 235 231 235 243
136 154 126 131 194 225 293 283 279 161 282 342 358 301 292 300 289 276 255 264 263 253 245 253 261 260 264 271 290 274 267 268 276 281 283 282 268 260 257 263 263 264 263 241 233 228 238
152 155 142 134 205 278 294 284 289 303 241 317 346 318 285 271 261 276 254 258 251 250 242 239 239 251 255 248 260 269 281 258 264 264 269 270 270 268 255 256 254 262 264 268 268 258 259
152 215 170 136 205 294 296 290 286 263 285 279 304 328 288 284 269 263 256 259 253 247 241 240 238 250 247 270 275 261 262 266 272 254 261 256 262 262 267 272 272 272 269 269 266 262 252
154 152 171 135 123 301 301 292 136 207 205 293 305 328 293 292 268 273 264 245 251 245 242 246 243 247 239 283 281 279 280 285 252 260 267 257 249 251 252 248 247 247 247 248 253 254 245
184 109 234 133 123 307 300 293 190 209 256 276 283 277 317 288 292 285 271 264 253 251 249 247 253 250 249 280 275 272 267 268 274 275 276 257 260 260 250 251 248 247 250 247 246 239 251
131 309 171 248 122 302 296 294 287 295 298 293 285 208 288 299 305 279 283 266 251 259 248 251 248 250 268 276 265 262 257 258 258 262 268 269 268 268 268 263 255 250 253 257 255 247 239
307 126 125 255 124 290 281 294 303 284 296 290 288 285 281 261 280 298 304 281 265 260 260 243 254 247 271 277 262 258 252 257 254 253 255 255 258 260 261 257 259 255 251 242 238 230 236
124 241 126 241 123 270 303 297 307 297 294 288 274 285 278 287 275 305 280 291 322 281 261 244 255 251 257 269 261 253 254 246 243 244 249 252 249 243 241 237 236 226 225 232 243 215 218
280 133 126 277 120 310 302 306 283 323 281 291 285 282 289 278 297 286 311 275 274 303 308 271 261 250 251 278 262 244 241 239 240 242 241 236 235 233 231 222 233 248 254 206 225 227 231
137 125 282 331 334 325 126 306 281 290 284 283 286 282 275 280 281 286 289 303 283 269 273 302 297 262 255 249 270 247 238 236 233 227 231 230 231 233 240 284 257 216 217 224 229 238 249
128 344 351 341 347 332 317 293 317 283 296 289 288 286 278 282 282 287 282 289 292 292 288 271 294 304 275 249 248 267 239 240 260 288 290 289 283 290 285 222 213 230 238 228 187 236 236

GFSGBSN_2pvu_pres_027.txt.gz
Presure
159 126 142 127 143 125 208 198 221 232 231 296 327 334 335 335 423 461 442 452 431 427 434 447 488 422 375 331 336 326 344 367 287 239 223 227 213 232 197 190 217 203 168 157 182 179 182
114 127 114 148 144 146 192 203 183 190 269 301 312 331 338 488 462 467 440 418 411 417 494 447 473 412 371 333 251 321 327 369 295 285 225 226 221 216 186 198 209 189 186 170 186 189 189
114 128 122 110 142 165 208 205 220 193 301 311 333 344 519 484 465 447 410 417 413 414 466 454 477 399 370 323 321 320 314 341 326 286 273 267 220 210 216 186 199 211 215 180 175 181 174
125 103 107 152 153 179 215 188 224 153 304 311 339 434 480 450 423 418 401 427 416 425 478 472 465 391 354 321 323 292 337 347 322 292 276 269 236 228 210 219 186 191 202 202 180 176 180
140 123 141 155 167 179 225 207 225 247 311 347 382 474 501 465 429 414 426 429 419 455 510 479 411 383 335 314 309 302 305 319 320 324 274 272 245 235 225 212 216 201 190 208 187 177 208
146 135 151 160 163 197 231 187 227 270 312 348 505 483 456 452 457 431 431 421 444 464 469 526 395 363 318 306 308 299 301 326 327 308 282 267 269 228 198 215 207 202 176 187 190 186 181
146 137 131 123 128 184 236 203 228 261 314 360 456 482 434 436 453 446 445 449 463 505 485 408 378 323 299 313 303 291 301 318 321 293 280 268 268 265 215 215 213 201 210 210 203 146 197
98 142 141 117 134 182 262 202 232 298 313 404 487 449 444 445 447 434 436 458 525 467 444 375 339 311 291 305 292 300 290 317 305 286 281 264 267 267 271 255 205 213 202 203 213 188 199
147 130 143 117 148 186 238 159 239 260 311 443 549 452 462 482 461 457 462 524 459 451 381 341 317 303 298 283 292 291 264 308 297 277 286 267 264 268 273 263 217 187 209 203 212 219 244
156 133 149 122 125 221 191 198 246 308 307 446 565 448 508 490 475 477 525 453 449 390 347 329 305 282 293 283 293 289 277 302 299 269 274 271 266 259 270 259 230 237 226 224 211 207 205
154 142 133 138 158 134 211 204 264 306 302 436 401 452 512 532 516 489 456 426 394 355 327 311 289 277 290 285 286 297 276 291 276 271 263 270 264 272 263 260 256 219 236 214 213 217 201
151 154 135 127 122 142 186 215 272 140 299 359 501 455 457 453 452 429 409 387 362 335 318 283 272 272 288 286 288 285 295 297 279 265 268 264 264 284 262 260 254 247 241 242 212 207 206
152 153 140 151 113 162 165 222 301 297 223 366 363 352 435 422 405 400 384 371 345 326 317 290 280 293 285 294 283 260 305 288 275 266 263 269 266 264 255 263 244 254 241 235 240 237 219
149 150 144 151 157 129 157 225 299 295 294 354 322 300 336 323 308 311 308 302 295 280 284 293 301 286 292 287 278 266 296 315 285 267 266 265 274 272 267 264 250 252 253 244 240 236 231
149 149 139 150 154 161 191 298 299 293 292 283 311 302 305 315 314 311 306 299 283 271 274 265 275 281 280 280 272 276 301 300 306 286 267 266 272 275 263 260 258 253 261 231 234 238 236
145 120 140 147 193 135 156 296 297 296 289 278 319 302 264 302 296 299 284 292 286 283 281 281 282 283 279 276 274 286 285 289 314 310 280 259 282 271 270 255 245 250 253 251 235 244 247
144 140 123 147 155 218 313 298 193 297 285 279 317 306 274 277 280 285 277 273 274 280 285 274 272 270 270 267 284 280 282 289 299 319 297 273 266 273 263 258 257 256 249 254 257 221 244
128 155 139 135 176 272 312 296 292 293 288 287 302 321 301 279 286 282 279 270 264 265 260 259 262 278 291 287 279 277 274 281 283 296 308 288 281 276 264 263 255 253 262 250 246 250 247
132 186 144 152 334 166 120 301 135 285 296 278 327 301 290 288 274 278 270 259 255 259 254 262 264 268 300 290 283 279 276 277 280 275 288 300 286 280 282 271 271 257 254 248 243 238 242
179 163 150 160 306 113 204 300 285 286 292 307 289 309 288 281 283 265 277 258 253 247 241 243 241 257 254 253 286 273 271 271 275 282 271 271 276 281 280 281 281 276 274 263 248 247 240
130 149 109 250 311 240 153 293 275 275 288 297 273 294 303 304 294 282 266 257 254 251 249 244 241 252 243 257 267 253 273 269 267 273 275 277 266 264 266 264 263 255 263 268 269 275 263
121 166 99 262 291 169 209 254 280 287 278 294 301 302 293 323 297 273 280 250 264 246 254 249 251 252 252 249 294 284 254 270 260 260 267 267 274 280 268 259 256 251 250 255 254 249 246
152 174 242 241 282 126 193 194 277 223 311 157 272 280 288 273 303 291 283 274 264 257 260 242 249 249 254 263 281 281 285 269 262 265 256 259 258 263 265 270 273 265 255 247 246 257 261
168 159 277 331 277 124 298 299 300 297 206 288 272 285 223 286 296 288 303 290 273 270 261 255 252 249 246 257 279 271 272 273 278 275 248 259 257 255 253 253 251 256 256 256 253 249 247
174 289 357 290 309 122 316 308 312 248 322 278 294 235 254 285 288 288 288 303 300 294 276 271 260 248 248 245 279 270 264 261 260 261 266 281 276 253 256 252 251 246 244 242 239 238 239
270 314 380 360 330 178 332 332 324 245 311 310 316 303 282 278 284 279 289 290 306 281 286 293 273 260 257 244 248 270 263 255 253 249 250 252 261 267 273 273 267 252 246 245 244 244 247
289 344 280 353 339 324 352 348 337 316 195 318 307 303 285 284 287 287 286 282 287 294 289 273 291 290 267 259 255 252 260 251 248 247 248 252 249 247 247 255 262 266 268 267 259 247 229
323 377 336 380 366 193 380 335 334 333 313 305 282 300 291 287 289 285 272 282 281 278 282 282 284 285 289 279 266 245 253 244 244 244 239 237 245 252 246 241 236 244 232 224 225 237 247
270 311 252 381 370 316 386 348 326 317 293 301 312 305 294 284 288 283 274 277 277 283 279 259 257 271 282 283 287 268 261 251 235 234 237 235 240 240 240 235 228 222 230 248 251 213 231

GFSGBSN_2pvu_pres_030.txt.gz
Presure
150 146 127 127 122 143 140 214 243 189 230 312 320 350 310 476 529 505 469 449 437 420 419 425 452 450 490 415 420 360 322 333 339 306 273 249 228 216 192 206 180 195 193 179 191 145 162
124 151 143 142 136 124 122 177 238 205 302 320 317 362 465 489 465 461 461 435 422 429 415 425 418 409 444 506 286 382 320 332 337 352 262 271 239 223 225 188 196 186 198 172 183 178 185
153 138 148 139 111 128 99 233 164 228 306 325 321 484 418 454 451 436 419 404 410 404 409 411 410 450 438 502 424 343 306 347 314 350 337 251 254 232 222 158 193 179 189 196 174 193 182
141 97 141 135 120 122 125 198 186 235 319 302 458 366 450 451 432 466 425 403 400 405 424 422 432 470 440 453 400 340 315 314 330 343 345 267 261 247 227 211 192 181 177 193 190 175 196
138 106 151 129 147 107 111 149 184 283 320 313 371 356 455 448 430 444 442 420 420 421 419 436 464 443 445 414 363 325 315 302 332 331 345 310 271 260 241 223 211 190 186 172 175 183 190
152 120 133 129 145 117 141 152 185 315 315 142 366 398 482 449 435 449 438 435 445 438 447 450 448 447 413 381 344 317 305 302 299 299 353 320 290 273 237 236 203 182 182 186 175 176 178
156 152 153 159 148 110 151 152 205 311 313 327 359 522 486 451 445 459 439 445 446 476 458 459 424 397 376 344 326 312 295 303 298 293 345 340 292 254 272 225 229 212 212 207 190 185 187
151 153 152 160 143 149 126 145 199 314 312 323 354 524 503 483 467 470 467 492 481 479 439 407 384 367 349 328 302 295 292 305 275 294 334 337 292 285 259 282 223 229 214 212 217 196 179
128 104 152 155 136 127 100 185 190 312 311 331 343 341 517 493 496 507 512 472 433 402 379 361 353 343 328 307 295 296 277 266 254 323 308 328 296 283 282 243 265 216 221 212 217 213 211
120 150 116 157 111 174 162 187 275 305 307 308 332 396 492 501 486 469 427 403 386 370 356 344 328 317 305 295 287 304 274 265 248 281 317 302 302 274 279 280 253 252 214 210 212 217 207
140 148 145 116 144 192 121 184 313 299 302 303 324 337 454 461 433 415 389 375 362 343 334 323 310 271 286 289 303 288 284 262 285 267 288 297 299 298 276 276 267 269 246 213 210 209 213
144 136 151 177 144 145 137 177 313 298 292 311 322 306 325 329 403 385 373 360 351 334 290 292 281 282 300 302 290 265 262 278 268 269 260 277 291 294 293 284 265 262 255 234 213 209 202
139 145 156 159 144 193 143 137 320 296 290 309 321 302 322 328 311 311 317 348 329 314 321 294 301 306 294 279 276 283 290 259 271 269 273 275 287 299 286 275 276 265 270 260 227 215 208
136 150 157 104 160 189 108 315 270 289 292 299 288 285 292 299 324 312 315 309 296 278 283 297 307 289 300 283 283 271 302 280 285 270 269 276 278 297 304 284 273 268 258 273 224 241 218
151 157 135 124 156 150 144 259 137 281 276 281 284 292 292 255 296 293 301 303 303 302 293 288 276 297 288 295 285 279 282 280 293 282 272 274 272 275 291 303 273 262 259 266 262 230 237
160 152 135 129 189 156 166 126 307 244 176 289 298 279 294 281 283 284 294 295 284 280 281 291 293 292 287 279 287 269 293 286 295 274 276 267 280 281 270 278 290 263 262 264 265 261 245
156 162 120 123 205 154 144 212 281 248 184 273 270 292 292 294 282 279 273 279 273 276 279 277 276 273 271 272 269 277 288 287 283 278 275 271 269 276 279 272 257 267 262 259 256 251 250
144 135 156 115 155 151 176 297 123 272 279 162 287 327 302 297 288 277 270 264 260 271 272 269 286 286 276 274 283 284 277 282 288 279 285 273 271 273 267 282 276 272 270 246 254 258 247
127 148 190 147 102 143 183 333 310 260 284 163 262 282 297 300 286 277 266 262 261 256 249 247 265 268 301 296 289 287 287 288 285 309 300 275 275 277 279 272 266 259 255 255 261 251 244
138 143 134 146 223 183 173 336 320 136 298 300 286 308 263 314 298 284 277 262 260 257 253 251 248 254 255 263 278 283 280 278 283 284 295 307 284 271 264 271 288 272 256 255 249 252 254
147 174 179 151 211 181 335 270 323 166 312 294 198 283 258 318 297 290 284 275 264 258 254 253 253 250 249 243 276 263 271 273 276 278 277 278 289 291 277 274 274 273 284 286 252 251 251
191 193 172 151 141 279 368 262 339 311 176 322 320 203 283 306 312 296 291 282 273 264 264 249 249 245 251 257 283 275 262 267 271 271 275 272 271 276 280 286 280 276 269 267 285 287 269
148 154 154 153 296 351 284 360 339 343 323 333 298 287 297 156 303 303 294 298 281 277 267 263 256 252 246 250 287 289 274 268 257 267 271 273 271 264 263 262 263 265 271 277 275 274 272
151 169 179 267 298 270 314 253 352 287 321 233 304 294 293 274 292 290 290 307 306 298 278 278 266 259 253 246 258 279 283 281 265 255 257 264 270 271 277 262 258 257 252 257 253 255 253
222 197 169 291 280 310 390 384 363 335 328 332 320 307 291 294 298 293 282 280 309 297 286 299 279 273 260 258 245 266 268 267 275 282 252 251 256 261 265 267 275 262 250 247 246 252 251
136 268 278 270 299 315 242 277 363 208 350 203 185 302 303 301 290 286 285 291 278 290 297 280 269 302 278 266 244 252 265 259 260 259 265 278 265 247 246 256 262 263 260 262 264 264 260
249 278 281 294 286 232 204 379 309 307 283 183 196 312 313 303 284 282 278 289 285 283 276 285 281 271 277 290 273 247 250 251 252 251 249 253 256 263 277 261 248 250 247 248 245 245 244
278 218 162 286 325 358 405 401 142 358 361 185 206 274 312 306 300 287 281 274 288 279 275 286 278 283 273 267 274 283 258 251 247 245 246 246 249 251 253 257 270 268 258 246 241 244 241
127 267 294 298 265 221 373 391 149 368 352 168 187 330 313 305 287 294 278 272 279 279 269 268 279 276 262 271 277 270 280 243 247 241 241 239 239 244 251 249 250 255 263 263 256 242 242

GFSGBSN_2pvu_pres_033.txt.gz
Presure
99 119 120 148 135 132 153 138 110 157 278 333 332 332 360 358 484 473 453 462 459 465 457 450 436 409 350 327 320 315 306 297 312 309 337 276 249 231 224 211 188 176 174 184 183 160 169
123 105 122 134 134 137 136 138 111 190 321 335 334 373 360 476 450 435 430 434 434 435 430 430 432 424 409 375 345 329 314 294 295 312 341 277 276 232 227 211 213 180 159 169 185 192 193
142 138 153 152 161 125 161 121 106 183 337 320 337 363 450 472 451 433 419 434 421 402 415 414 413 411 415 398 391 372 332 311 285 316 307 322 288 251 231 228 211 200 173 171 169 198 194
127 144 150 151 165 152 142 185 107 178 333 327 372 355 514 457 448 434 437 449 428 404 401 415 407 419 437 433 454 406 386 321 286 288 316 336 270 273 232 233 223 207 204 177 184 199 195
96 123 143 138 145 208 123 167 188 281 315 327 364 354 516 464 443 435 453 443 420 412 398 407 416 433 427 436 446 456 414 367 275 283 300 327 325 296 259 227 235 219 203 187 171 181 193
120 102 143 126 159 162 131 142 190 302 268 249 356 354 509 470 459 461 438 429 446 436 424 417 421 461 463 462 497 430 378 367 306 282 290 303 344 362 277 254 230 228 209 198 193 168 170
125 150 130 136 111 155 165 192 187 325 278 244 317 330 515 492 480 473 458 464 442 455 443 456 445 436 466 325 374 359 296 308 286 338 303 291 324 374 285 238 245 232 221 206 200 195 175
122 144 126 154 159 135 90 147 125 313 267 273 308 342 534 520 516 508 489 489 479 471 443 436 432 446 356 338 320 299 317 282 291 299 308 302 316 346 326 260 249 237 230 207 210 198 202
108 136 145 138 133 159 154 135 107 156 265 298 295 331 361 432 436 431 421 414 411 403 396 396 400 360 329 323 316 316 294 272 311 319 325 293 332 337 326 322 260 257 233 225 209 203 199
151 143 159 164 123 131 152 162 111 196 280 282 173 321 333 414 410 404 391 391 380 372 368 367 357 319 322 331 334 305 299 277 284 297 286 333 299 340 327 316 265 253 248 232 220 209 213
133 168 136 137 127 146 151 145 152 180 309 284 304 313 320 310 335 382 367 368 358 360 345 346 344 339 335 315 348 284 291 280 282 285 328 318 358 351 323 314 307 254 256 244 230 214 106
131 137 159 135 156 132 171 187 179 121 313 291 286 298 300 299 335 320 311 335 358 357 326 307 314 297 283 280 280 280 266 277 261 264 288 310 303 340 316 311 305 296 239 243 237 223 216
135 142 154 131 151 128 144 202 184 215 303 304 284 308 308 287 276 323 312 298 305 287 317 308 303 303 283 272 285 275 264 257 258 268 278 283 279 302 315 305 312 298 279 243 246 231 221
138 143 169 184 115 141 141 142 177 337 207 286 291 293 304 295 262 299 324 311 299 313 305 307 305 310 299 283 275 267 265 262 263 262 270 289 293 290 305 308 312 288 285 266 259 249 222
140 142 164 126 124 113 165 177 191 328 219 314 275 288 302 299 284 281 294 311 298 305 294 311 300 291 288 289 303 281 272 270 279 277 272 286 279 295 304 302 306 289 281 276 279 256 243
147 141 137 150 178 141 124 200 181 348 326 318 295 290 321 282 290 280 272 293 299 296 302 298 289 299 305 302 286 286 284 288 268 277 268 270 278 277 283 307 314 306 282 279 278 271 247
136 146 144 142 154 151 141 200 183 250 337 321 304 296 291 306 297 280 270 272 266 285 286 286 281 276 270 273 278 266 263 269 287 283 273 274 282 277 277 292 295 305 300 299 271 267 261
134 153 137 151 154 151 142 268 190 218 305 325 312 316 290 294 299 286 274 270 268 263 259 295 294 281 275 274 277 273 282 281 260 277 274 278 272 273 273 269 276 295 286 276 276 272 262
135 186 129 152 159 149 133 288 230 138 353 332 326 312 296 303 299 296 281 271 266 263 258 254 261 267 300 291 286 284 281 280 289 275 283 265 284 279 278 269 270 261 277 283 263 262 259
143 157 155 156 153 140 273 209 322 290 373 357 327 325 275 189 316 300 292 273 272 268 261 257 253 252 252 277 291 287 287 281 280 280 277 285 269 270 272 276 266 256 254 259 274 261 253
140 141 178 154 216 139 246 192 200 349 302 336 113 310 313 176 240 308 295 289 272 272 267 254 255 256 261 259 282 281 284 281 286 289 309 297 275 271 276 291 290 296 257 260 253 255 270
163 127 145 144 137 286 276 269 290 378 312 356 338 318 314 177 189 309 292 293 283 278 271 262 258 252 252 255 277 280 270 272 274 278 284 294 319 276 267 268 263 259 283 293 256 248 248
131 143 144 221 170 260 186 328 204 169 380 353 191 317 309 295 202 307 299 310 292 287 279 273 265 262 252 253 263 286 280 266 265 268 278 280 279 292 301 277 267 266 274 271 283 258 247
137 192 169 254 244 276 294 315 284 228 270 253 346 325 310 305 178 276 296 307 307 305 292 281 276 268 258 257 249 281 280 279 266 263 265 274 275 271 275 278 281 285 277 273 259 273 278
158 181 209 194 248 163 294 179 167 307 392 371 312 336 284 176 221 295 295 288 286 287 307 298 293 275 274 264 251 261 275 274 283 263 252 262 267 273 268 260 262 258 263 263 271 269 270
145 135 194 237 252 275 222 140 290 403 136 381 322 338 320 305 261 296 293 284 281 288 290 304 290 284 292 276 266 247 270 265 263 275 278 257 255 258 261 272 266 254 253 252 244 246 247
229 239 193 262 266 231 165 271 246 135 308 371 147 345 329 306 306 298 284 283 283 286 271 269 290 289 280 292 280 264 247 268 258 260 262 267 275 260 250 254 262 266 270 249 244 247 248
175 133 224 248 258 250 287 321 143 285 107 133 355 352 331 315 249 265 284 285 273 274 274 277 273 277 282 282 293 281 263 250 261 253 253 253 254 260 271 268 242 251 260 263 259 254 257
225 148 259 259 154 125 162 123 373 275 122 131 113 349 333 295 297 303 289 282 277 271 266 272 277 272 267 275 271 274 294 273 249 256 252 248 251 250 252 259 267 269 245 248 253 253 254

GFSGBSN_2pvu_pres_036.txt.gz
Presure
114 139 135 132 143 134 150 157 136 176 153 352 152 321 352 418 474 467 457 447 436 453 450 480 480 463 343 327 305 311 308 285 314 332 315 306 254 238 196 221 202 186 190 161 191 181 187
116 135 114 146 130 132 158 135 149 219 164 138 304 321 373 509 470 445 445 423 423 435 429 448 457 459 426 330 313 310 300 268 287 304 322 339 306 275 228 208 223 176 196 186 164 189 114
120 99 129 153 101 127 123 130 149 172 205 348 328 321 528 491 461 452 438 426 424 408 415 424 423 442 439 343 322 306 299 283 280 294 318 320 287 299 266 227 221 225 180 194 160 166 197
125 137 151 147 111 143 135 144 135 176 194 347 331 324 532 483 456 446 451 465 448 424 406 406 422 420 425 421 331 310 276 293 299 285 291 324 302 327 273 235 231 231 219 201 196 169 61
141 135 158 127 161 122 142 153 135 194 144 307 222 325 441 510 482 476 454 442 434 451 402 408 419 419 412 427 402 326 307 261 285 295 281 294 287 312 301 260 236 228 220 208 187 189 195
122 117 148 123 127 134 123 154 148 193 205 329 326 339 386 518 516 490 468 463 451 432 422 406 409 420 433 431 435 379 322 299 275 275 287 282 295 317 330 288 260 227 225 214 216 183 187
122 139 120 126 146 134 132 154 214 190 203 114 324 335 341 389 458 480 492 461 437 442 444 437 443 456 466 457 456 453 369 326 300 275 279 299 305 302 316 306 289 237 226 230 201 209 189
125 140 149 112 126 127 151 145 153 178 201 118 154 331 327 365 439 432 433 443 445 450 446 462 442 458 467 447 442 440 427 364 327 313 271 282 287 323 313 346 311 281 237 231 229 216 204
142 127 141 129 160 131 147 123 242 196 193 242 333 316 322 348 368 396 415 421 393 371 379 367 348 342 335 365 391 394 400 398 389 305 329 266 282 294 330 313 348 278 274 236 235 224 215
144 142 135 135 161 136 139 133 132 264 179 340 325 312 324 320 349 388 426 390 350 344 329 330 322 326 296 300 308 322 303 311 293 313 309 284 271 314 298 332 371 352 269 266 241 224 224
118 127 142 154 160 130 167 109 218 163 322 312 153 331 310 307 330 331 316 368 346 346 339 355 331 325 312 302 296 284 297 300 281 295 297 350 314 268 283 288 369 362 280 254 255 236 229
130 138 142 148 153 134 140 143 261 298 187 308 340 321 303 308 307 293 333 310 340 354 345 325 310 321 331 297 279 278 276 280 291 291 318 295 328 311 285 310 304 356 361 269 265 254 232
120 142 129 130 149 155 148 150 168 310 198 307 319 319 319 293 245 278 323 319 324 334 317 322 340 320 306 292 282 272 271 266 267 279 308 294 276 338 331 320 303 349 348 342 264 263 251
124 142 134 124 154 164 150 154 199 310 179 212 346 330 300 313 200 292 309 312 306 304 313 297 302 304 298 291 285 283 280 270 275 283 293 294 311 302 362 333 309 325 327 330 296 270 260
125 135 132 140 154 153 149 180 175 303 245 223 338 250 238 298 290 202 278 318 314 301 296 301 291 295 291 279 284 280 279 273 276 269 280 294 296 296 296 320 316 325 334 331 318 281 266
125 134 132 141 150 158 156 161 220 153 210 386 193 331 319 233 311 271 234 279 298 309 299 288 278 294 287 286 276 278 279 274 284 279 279 278 280 290 285 305 310 316 309 329 318 310 285
128 136 132 144 131 157 155 163 156 210 357 162 203 280 330 140 304 298 215 281 273 283 288 303 290 289 279 289 277 275 271 259 265 270 278 276 273 279 288 293 261 295 303 321 321 305 287
127 125 131 152 155 135 134 152 144 214 349 174 372 250 335 306 185 304 297 290 279 274 267 289 285 281 281 283 272 267 284 262 282 262 271 276 277 276 273 275 298 297 303 307 314 296 297
126 120 139 129 230 153 170 152 204 212 426 353 376 349 168 320 300 299 280 292 276 278 272 265 260 262 284 277 279 278 271 269 265 270 255 258 263 264 274 276 273 280 290 304 293 302 282
124 146 137 135 145 130 148 139 155 184 427 181 280 299 300 311 313 308 301 298 286 279 273 267 262 260 256 290 287 282 278 277 278 284 267 262 279 269 271 273 260 263 268 285 291 286 295
107 139 123 189 151 137 185 153 138 238 225 338 365 344 333 176 314 300 297 273 293 283 281 274 263 261 261 264 282 282 286 283 284 276 307 277 274 271 270 268 276 277 257 257 272 283 277
111 130 139 131 144 140 140 151 245 183 97 429 145 360 330 326 313 308 294 283 297 286 281 277 271 269 263 260 256 286 274 294 287 284 288 288 274 273 276 272 280 271 286 256 257 259 272
135 134 142 143 141 162 180 158 261 242 312 413 376 337 340 304 212 310 294 291 284 290 287 281 277 273 272 266 263 271 287 275 271 272 278 283 287 297 307 272 268 269 294 276 252 251 253
118 135 136 135 151 130 239 135 184 258 158 154 282 126 357 332 245 308 281 291 283 297 288 288 285 278 271 268 264 259 286 288 275 267 269 270 285 284 293 318 272 275 269 281 256 245 253
141 108 145 135 138 222 148 158 166 198 179 140 132 133 371 285 286 310 212 289 143 281 283 310 303 289 281 275 270 260 258 285 284 273 264 267 267 281 280 294 274 266 259 266 264 275 276
118 149 132 119 113 139 163 229 128 296 138 113 414 127 130 122 320 232 297 290 281 280 281 288 290 295 285 288 275 268 261 261 278 284 277 261 263 262 275 265 274 280 287 278 281 270 258
116 116 139 155 134 150 170 123 279 277 118 133 404 122 121 357 321 316 302 288 284 278 279 276 278 284 297 281 290 278 266 261 270 273 276 282 262 257 256 264 271 263 257 260 258 265 271
124 124 130 145 136 159 184 152 137 233 112 289 397 125 118 272 339 319 162 292 281 277 271 266 271 275 274 285 286 299 278 266 260 265 265 266 274 278 253 247 253 268 264 251 253 253 253
96 138 133 170 154 168 122 238 130 143 283 308 121 129 376 127 349 227 316 301 292 273 269 267 263 269 264 264 274 281 279 285 269 254 259 255 258 259 268 268 257 245 253 264 268 248 254

GFSGBSN_2pvu_pres_039.txt.gz
Presure
148 100 116 122 142 150 120 114 124 134 191 193 373 223 123 524 513 473 462 453 440 434 445 462 470 482 326 341 315 301 291 293 301 292 338 328 301 276 226 200 199 190 184 160 194 158 148
140 110 109 128 133 148 131 142 143 143 164 200 375 372 343 250 502 465 455 449 432 429 429 436 443 467 447 310 325 297 296 290 296 287 304 351 324 311 251 207 204 197 188 185 173 197 182
142 141 101 117 106 119 135 154 136 222 201 176 371 270 362 412 524 490 467 452 444 437 423 421 432 433 442 343 320 306 297 295 294 292 285 329 299 307 263 239 221 206 197 187 187 193 192
143 153 127 131 134 133 98 127 130 118 192 338 358 354 353 343 459 513 479 458 471 444 412 412 428 433 426 436 313 314 292 299 289 253 281 307 337 295 303 250 222 208 219 199 186 173 161
156 148 127 145 135 129 135 123 133 209 206 281 305 278 347 336 439 463 477 471 456 448 424 413 423 422 431 437 408 317 300 288 293 283 293 284 317 290 324 251 238 231 227 173 203 191 192
152 158 122 140 163 129 142 146 148 127 275 329 259 215 342 329 388 434 468 470 457 441 437 414 426 430 436 433 435 314 304 290 288 285 287 287 292 319 345 309 245 220 221 227 202 194 186
145 122 131 148 132 140 134 153 165 127 321 256 360 342 338 324 331 455 453 449 472 479 458 433 419 430 433 426 430 335 316 294 284 283 289 278 287 316 320 331 266 245 235 227 220 202 198
156 147 147 152 151 140 142 136 183 157 191 339 142 349 333 322 318 386 385 378 367 358 378 485 468 457 445 428 435 398 320 302 293 281 287 281 280 311 304 331 334 263 234 231 236 230 214
152 152 134 142 127 134 153 148 140 159 199 212 179 345 333 322 319 381 345 363 360 365 362 357 357 362 454 481 444 442 323 308 297 284 277 282 269 283 300 307 335 325 284 239 233 237 220
158 145 125 143 122 136 147 121 148 189 208 183 308 342 330 317 313 307 358 341 352 333 352 340 338 336 341 357 461 455 337 315 299 283 297 277 297 302 283 303 313 333 321 281 253 231 238
127 118 139 140 140 134 144 142 146 128 204 182 342 263 328 315 302 317 270 320 314 317 329 350 321 309 328 328 334 427 435 322 295 287 289 277 276 284 305 287 301 328 287 333 269 251 237
167 144 135 139 155 154 135 163 132 164 249 220 247 361 282 317 266 276 319 323 327 366 365 337 316 320 320 307 320 320 375 411 303 291 281 276 293 275 294 298 315 319 331 299 321 278 257
150 126 136 134 107 148 151 141 138 162 208 324 243 364 336 320 308 300 298 310 342 324 293 311 295 274 298 267 301 310 308 325 354 302 283 269 286 278 274 316 290 305 331 368 377 279 266
146 156 129 122 146 161 148 157 160 169 173 165 150 376 190 321 314 295 297 326 315 296 318 319 302 302 289 254 283 287 298 303 302 305 309 338 279 286 315 322 312 253 280 313 328 376 264
152 145 122 133 135 144 153 161 166 157 159 173 297 377 345 322 311 297 291 314 306 313 320 313 278 295 288 278 285 277 275 280 273 287 318 321 321 314 306 325 314 314 307 270 299 365 364
151 120 119 134 143 140 146 160 167 147 137 152 313 393 365 338 317 302 293 286 296 311 301 299 298 294 293 293 293 289 285 286 289 285 307 305 312 306 325 311 271 145 319 325 340 333 352
136 125 139 130 136 130 163 151 182 155 161 198 213 403 350 334 326 307 290 299 288 278 309 287 285 302 280 279 270 283 262 253 282 278 294 277 300 294 297 292 295 195 316 310 310 335 339
122 131 125 156 135 131 152 156 154 140 163 162 299 330 379 127 135 313 265 288 280 280 269 294 292 279 288 274 278 265 265 266 263 263 256 269 275 272 275 294 290 287 283 204 302 322 324
139 136 146 129 136 128 139 133 153 145 162 172 149 374 222 293 335 318 303 287 276 288 277 269 268 279 286 282 279 271 275 263 263 269 266 270 267 276 273 264 270 277 285 292 295 300 308
128 130 125 140 129 138 198 156 157 157 142 162 131 201 171 234 338 323 186 233 293 281 286 277 271 264 268 283 288 282 280 272 273 266 266 267 268 265 262 270 277 280 285 296 311 292 296
157 130 123 137 134 118 147 134 144 125 134 240 100 133 405 141 167 223 314 301 287 297 288 279 277 266 263 265 262 284 286 291 282 273 272 273 271 260 263 277 272 265 264 271 272 288 293
128 125 119 129 144 148 123 166 144 149 109 150 194 122 422 380 129 331 311 309 300 293 294 283 279 274 268 269 258 262 288 278 289 279 277 283 283 269 278 272 280 281 257 262 260 270 273
123 86 133 133 141 148 130 143 155 127 135 211 125 114 409 214 126 155 320 309 297 296 279 289 282 275 273 271 270 263 261 288 278 288 283 283 290 289 290 278 271 265 272 276 255 260 263
115 99 140 145 141 134 133 142 111 117 161 255 118 123 425 124 121 334 326 315 304 293 287 293 289 283 271 276 266 269 264 264 287 276 270 270 276 283 282 287 296 285 274 269 283 278 259
124 131 124 142 134 133 130 143 134 122 150 140 264 234 360 130 123 119 176 308 145 294 289 278 283 287 291 283 274 269 269 266 262 291 276 271 266 269 282 275 284 301 310 265 272 280 263
158 127 132 132 105 126 174 160 106 134 155 145 107 299 225 404 121 234 109 305 307 289 285 280 271 290 294 296 288 275 269 268 262 258 291 277 269 261 271 274 275 291 308 271 264 271 264
128 103 114 122 157 124 121 130 164 131 167 136 232 124 187 310 119 367 258 318 312 297 287 282 273 283 281 292 289 278 284 272 265 263 269 286 276 262 258 272 269 279 286 271 260 259 270
113 112 119 131 131 120 158 141 143 149 142 274 256 303 217 309 138 106 125 102 299 304 287 280 272 272 277 277 274 286 278 285 275 266 258 266 274 282 259 256 267 271 268 278 276 283 255
101 104 131 153 125 134 134 129 141 158 256 259 273 145 120 196 120 138 116 329 141 290 291 280 272 266 264 264 272 264 276 285 293 274 263 258 262 262 281 269 259 255 271 266 269 267 267

GFSGBSN_2pvu_pres_042.txt.gz
Presure
137 141 129 121 165 110 116 111 151 160 201 206 309 263 385 374 403 359 492 471 457 441 430 452 468 465 360 314 329 308 305 304 301 293 301 308 358 318 345 211 199 179 194 176 189 171 192
139 154 118 150 120 129 124 118 145 150 193 121 118 383 380 371 384 519 512 478 459 435 423 433 444 464 468 327 329 309 290 308 289 292 297 307 343 366 294 280 213 195 169 184 178 210 164
131 147 122 115 133 154 111 113 135 130 183 202 130 250 370 364 376 506 480 482 481 435 432 433 421 442 455 444 312 317 298 305 289 287 284 303 312 355 325 329 225 204 228 177 190 185 206
138 142 129 107 124 125 135 144 144 127 181 183 250 370 300 356 347 308 512 474 471 465 439 425 428 419 476 454 321 319 303 304 292 280 288 292 303 346 356 313 257 212 195 200 193 185 182
155 140 136 148 169 114 151 133 138 133 197 182 250 290 272 354 339 366 397 459 476 474 446 425 436 419 429 442 433 312 307 310 294 285 281 291 300 312 354 324 343 225 219 199 187 195 179
123 138 123 166 133 112 122 110 160 138 174 135 191 328 357 351 339 314 195 376 384 451 442 430 431 444 433 421 454 307 309 312 291 282 279 289 293 303 344 354 340 232 215 208 197 190 153
125 147 112 137 133 173 156 121 93 169 165 216 182 200 359 332 337 325 386 336 368 361 379 442 444 440 434 432 439 307 315 303 289 288 278 278 302 286 321 348 321 265 226 212 196 205 87
124 137 147 146 152 133 120 108 169 140 155 171 148 272 360 330 336 325 313 342 362 324 355 362 452 446 437 441 441 308 310 304 292 285 278 275 313 293 299 333 302 306 229 220 214 199 224
144 131 121 151 144 134 159 145 159 148 155 162 203 134 304 344 336 322 316 321 344 341 347 348 360 445 448 436 435 414 293 301 291 290 279 277 285 299 285 314 341 296 287 250 219 215 216
148 124 158 108 155 159 140 146 142 184 156 153 192 307 336 277 339 322 317 307 361 358 361 341 353 356 448 439 428 419 304 302 288 287 282 282 289 281 285 293 321 340 308 277 243 222 222
150 128 166 156 158 136 154 136 109 141 187 162 172 187 265 349 332 321 310 306 327 317 353 345 334 343 358 481 405 420 322 292 279 289 288 283 274 306 309 281 299 323 342 310 260 235 237
135 141 158 155 146 147 151 157 130 120 130 146 205 177 268 340 334 288 311 309 329 313 326 330 332 330 336 364 447 404 336 304 289 272 284 281 286 281 282 289 284 304 328 273 307 247 246
135 165 155 125 144 131 134 137 159 113 149 143 154 200 162 265 303 328 309 294 326 313 307 303 317 287 320 326 388 418 400 303 285 283 281 279 280 280 280 285 284 282 305 316 326 329 245
155 163 160 119 144 133 146 119 152 105 172 144 162 277 191 206 130 324 307 301 305 306 312 305 288 290 316 315 250 413 400 304 291 282 280 276 281 290 293 292 294 276 289 308 321 346 315
154 178 160 134 138 135 148 141 161 134 156 143 160 236 162 190 141 323 317 299 296 309 316 315 300 294 286 291 308 324 368 308 299 292 279 286 280 282 280 274 280 289 276 311 324 317 321
123 137 131 125 141 146 145 130 153 164 154 125 147 240 176 275 199 135 310 303 294 291 294 300 301 293 300 296 294 291 283 336 357 302 283 277 284 275 285 277 284 275 280 298 303 315 315
129 132 150 127 136 133 139 138 91 162 214 147 181 132 133 120 369 223 317 308 297 293 283 299 296 294 288 285 276 282 272 296 279 276 332 310 318 321 322 314 193 272 301 221 297 308 306
123 163 171 127 131 140 125 136 84 167 133 166 147 171 123 176 381 223 328 310 304 287 281 282 295 284 292 284 272 270 271 266 277 274 308 268 312 307 297 302 332 334 320 245 344 300 321
170 145 153 132 117 135 125 138 155 146 127 145 153 194 129 173 166 207 336 315 301 290 282 273 273 278 292 288 286 280 274 271 270 265 257 267 279 296 306 289 280 300 275 302 209 308 313
136 145 143 143 106 126 129 152 152 152 129 183 164 111 165 153 353 123 290 324 306 298 286 281 276 267 271 262 289 278 280 276 272 267 272 269 274 266 270 272 281 281 285 287 290 295 298
143 143 145 132 125 125 122 135 120 146 127 161 202 162 162 179 118 229 353 198 313 302 291 280 268 274 269 266 263 268 278 290 285 276 276 266 280 265 263 272 271 277 284 285 293 286 316
135 135 169 129 118 129 141 113 161 98 162 161 130 141 116 150 123 119 125 142 323 307 303 286 284 274 268 271 259 266 259 288 284 276 280 270 273 272 269 273 267 274 271 272 273 279 284
150 147 153 129 114 137 144 121 147 154 159 138 149 201 116 205 128 338 113 109 146 312 301 297 286 279 276 269 269 260 262 257 286 287 287 280 274 271 273 273 277 270 273 265 268 267 269
142 138 138 127 139 127 102 148 165 133 175 151 132 152 127 156 264 252 122 258 116 264 288 302 297 289 278 274 275 269 258 264 263 259 288 287 287 282 285 291 287 293 287 272 268 258 262
135 138 126 108 119 138 138 146 95 136 192 143 144 143 139 139 153 197 117 172 219 147 302 300 293 292 285 281 275 272 270 264 265 263 272 282 277 272 278 284 285 287 291 290 285 270 264
138 138 131 115 121 145 130 95 128 122 111 143 185 130 128 178 110 272 396 105 343 224 106 295 212 280 284 282 291 284 278 275 268 266 254 279 279 265 269 269 282 280 286 290 302 302 274
135 138 135 123 152 135 127 135 137 138 163 132 209 197 152 187 197 124 157 373 107 127 149 197 289 285 284 286 292 290 293 282 278 269 263 259 273 282 267 266 267 277 277 298 315 277 267
128 135 131 132 159 130 132 135 131 125 156 198 194 137 177 136 301 123 420 375 118 194 250 221 292 285 279 273 276 277 288 281 282 281 268 262 262 267 284 270 262 268 273 276 301 268 276
134 139 113 140 95 118 113 118 226 118 97 227 138 177 257 251 327 250 426 160 366 107 175 292 284 285 276 273 270 266 278 275 282 299 281 272 262 260 262 272 271 254 261 271 271 288 274

GFSGBSN_2pvu_pres_045.txt.gz
Presure
131 152 148 148 131 108 134 108 128 126 125 160 95 149 315 377 381 377 428 525 485 468 453 438 466 458 470 372 315 325 328 308 286 289 301 281 334 287 370 322 312 253 217 211 199 172 138
151 149 160 142 128 126 154 109 139 162 143 130 148 222 230 331 373 240 369 461 516 458 447 436 445 440 451 433 329 308 322 303 284 279 318 284 319 318 343 361 292 275 227 215 197 167 168
141 132 150 154 127 125 108 109 114 106 144 126 180 143 138 378 367 357 368 372 452 477 438 441 432 443 447 470 330 306 324 303 303 280 297 305 308 284 332 308 317 308 229 218 208 191 171
144 124 144 171 129 123 136 131 175 119 126 126 131 155 187 364 360 355 359 359 384 464 461 452 439 443 453 476 340 308 313 321 304 273 285 282 285 321 319 361 307 291 244 228 210 198 187
139 115 129 155 126 117 110 154 103 131 149 206 130 158 151 297 358 355 337 389 384 379 463 444 445 417 451 469 441 311 296 311 294 299 274 278 294 314 303 336 331 323 313 230 205 209 187
130 137 144 156 128 145 113 125 135 151 143 161 178 211 180 353 360 353 337 328 370 376 377 454 448 432 448 435 445 313 295 306 293 276 264 281 299 319 297 317 376 319 299 224 208 190 192
135 141 138 155 103 92 135 125 170 150 176 136 153 202 165 205 364 238 339 321 375 359 374 470 456 461 437 449 446 321 298 311 293 280 280 271 286 311 292 306 339 379 326 294 210 210 217
135 110 129 119 154 134 156 110 169 124 146 161 118 148 197 173 357 345 340 317 353 346 347 373 467 458 444 439 455 379 301 296 293 284 277 287 282 294 289 293 319 359 287 305 237 209 209
141 144 126 159 127 154 116 145 151 157 141 104 149 141 164 172 258 345 340 322 320 346 351 360 377 464 447 441 460 386 302 285 294 288 289 291 284 290 323 299 307 340 350 286 273 217 209
111 142 136 127 137 124 130 155 157 131 181 147 167 169 177 152 145 344 339 326 330 330 358 351 365 410 451 454 452 381 303 281 299 283 283 290 283 278 291 284 297 316 348 280 313 246 215
123 132 140 164 141 158 125 130 152 117 123 147 169 159 208 128 170 352 335 322 324 320 315 338 347 370 444 444 440 374 307 285 278 295 290 294 286 282 289 305 290 298 334 343 284 265 235
127 138 142 118 163 139 169 139 142 159 167 136 168 140 156 196 134 349 339 325 312 323 322 335 338 348 434 410 421 355 305 294 288 282 296 281 293 282 287 283 320 285 308 338 281 342 247
129 139 126 124 132 152 150 143 146 114 166 139 163 144 166 129 154 198 342 319 306 318 318 312 309 332 358 411 387 339 297 285 287 284 292 246 285 295 278 281 297 309 286 321 343 320 326
128 137 125 136 130 166 163 115 137 139 119 128 168 229 149 109 161 176 301 323 314 301 307 318 314 317 323 306 411 393 301 294 291 296 281 290 280 285 285 281 274 277 288 283 326 262 300
151 127 132 131 151 147 148 135 126 139 141 124 192 157 197 128 126 160 341 307 311 303 301 319 305 301 317 331 416 411 305 289 282 283 286 293 284 282 287 275 288 278 308 310 308 331 286
126 125 144 147 160 139 145 134 138 141 139 127 142 192 210 217 162 142 299 152 265 305 296 286 304 295 295 302 330 389 363 296 284 283 277 270 281 291 284 283 282 279 273 291 301 296 318
112 143 150 166 148 126 130 134 131 135 137 159 140 157 178 123 168 126 305 337 324 310 299 295 287 298 291 288 292 324 383 296 286 281 271 270 278 285 288 294 276 284 277 283 283 299 313
127 140 147 138 145 135 154 125 142 118 148 138 210 171 203 127 146 124 130 175 216 305 298 286 281 291 294 286 273 271 285 343 296 278 272 273 275 275 273 279 280 284 278 285 273 299 287
122 134 134 172 110 136 149 131 121 129 150 153 147 123 158 125 144 128 118 118 180 139 298 283 284 279 288 292 279 282 271 276 282 316 291 287 288 289 290 290 289 280 283 230 275 287 295
136 149 146 134 154 128 142 125 117 145 137 135 198 171 178 227 176 153 125 124 337 139 228 298 285 279 275 269 278 286 282 276 267 268 294 301 305 308 308 323 296 302 313 327 333 329 226
130 152 142 153 149 136 127 139 123 131 138 150 160 124 153 100 152 145 146 118 127 294 278 297 220 243 276 271 267 270 284 280 282 277 272 260 266 264 274 279 282 279 276 297 291 282 161
132 145 142 156 135 119 124 102 156 101 130 135 120 184 158 129 164 136 207 127 355 234 273 133 186 286 277 276 272 263 263 263 282 277 282 276 269 270 263 279 276 275 281 281 282 289 293
126 143 142 150 133 125 120 132 132 144 121 144 147 175 161 171 188 184 106 111 315 241 163 267 298 294 284 274 273 267 263 262 258 278 282 278 276 274 269 257 260 263 266 267 270 272 280
126 142 150 129 131 135 125 133 131 133 152 120 143 136 147 110 198 188 491 290 128 351 306 117 296 295 291 281 274 270 267 264 260 261 261 281 284 280 275 275 269 265 268 264 272 267 271
126 161 167 167 157 137 127 132 130 130 125 110 134 145 134 244 105 217 127 170 334 134 290 317 301 294 294 286 278 271 269 262 264 263 265 255 281 282 285 287 283 287 291 291 286 269 272
132 161 136 144 132 126 120 134 133 145 129 129 112 132 121 127 116 152 128 163 182 361 340 152 301 293 293 291 283 277 280 276 269 268 266 264 259 283 276 272 272 278 283 288 287 295 285
154 159 125 147 139 120 142 131 127 136 145 114 130 141 128 139 107 145 232 228 119 129 349 321 157 297 292 283 283 283 283 283 282 275 272 266 264 259 283 274 264 259 262 285 278 281 293
160 149 132 136 127 108 133 133 111 142 146 124 125 128 197 203 96 106 172 156 345 114 182 141 310 293 287 282 287 282 281 291 290 288 275 272 266 262 264 276 281 264 260 258 277 276 304
141 166 171 163 109 135 131 125 146 116 133 117 121 137 145 235 191 219 150 123 362 265 326 165 312 225 168 283 279 276 272 275 272 284 273 282 274 265 258 263 270 281 268 260 264 271 296

GFSGBSN_2pvu_pres_048.txt.gz
Presure
99 114 123 142 158 151 124 107 109 129 113 132 124 124 163 178 110 301 314 363 257 472 481 469 454 460 469 463 431 340 323 342 295 295 293 286 289 278 242 234 219 219 225 235 206 217 212
101 132 130 144 142 164 126 111 152 120 111 114 133 161 146 163 177 379 369 355 364 395 480 462 450 435 455 462 485 337 327 320 362 289 294 283 283 282 265 251 229 260 268 250 130 213 240
103 124 138 143 152 153 122 157 99 124 118 114 111 191 170 228 187 373 368 353 356 373 478 475 455 443 445 444 468 354 323 309 341 335 289 282 280 280 267 253 269 269 271 255 223 257 248
104 131 125 148 153 162 135 159 109 99 125 129 127 149 125 143 269 190 362 350 352 367 399 466 457 448 440 449 460 375 311 307 316 332 283 282 278 280 274 265 273 271 272 258 148 228 245
114 130 121 146 134 151 107 133 130 121 133 99 158 152 168 154 179 164 364 350 345 362 382 471 464 437 453 433 433 382 312 295 310 327 309 284 279 281 303 270 276 275 270 261 307 311 253
112 126 131 123 126 124 106 126 134 105 134 132 193 125 186 155 171 133 369 346 333 341 335 390 473 443 455 449 469 355 321 293 297 314 309 275 280 283 299 291 271 271 266 306 292 300 265
110 120 124 144 81 137 109 160 137 115 124 129 160 154 156 150 196 187 184 350 330 332 344 386 477 463 452 448 441 352 318 301 295 309 295 281 290 273 267 293 268 290 364 350 289 302 268
123 137 115 140 148 139 129 104 103 159 125 169 119 105 166 138 135 167 157 351 331 322 328 382 424 472 449 434 459 345 316 300 290 300 299 289 296 282 291 308 324 295 325 357 322 279 278
140 134 126 141 124 126 143 142 137 135 146 132 96 150 183 150 127 170 271 153 332 322 323 360 392 472 459 445 456 339 312 293 294 293 282 280 287 285 275 281 308 293 296 372 334 293 288
130 139 121 136 128 115 142 151 136 153 135 169 118 154 153 169 128 237 185 352 332 326 322 334 385 470 452 455 452 339 309 297 294 299 285 285 292 281 283 309 294 310 303 324 373 325 285
128 127 128 138 130 148 143 151 144 128 145 113 103 148 171 155 123 123 141 353 330 330 312 334 368 447 467 461 467 335 291 297 293 276 287 296 303 305 292 282 297 318 279 313 365 289 304
119 128 133 149 130 144 146 134 151 126 164 172 105 161 164 146 111 131 339 177 221 322 312 317 350 410 458 472 451 333 303 298 285 282 283 284 295 294 298 263 274 315 302 269 332 354 314
152 125 154 141 132 149 152 160 119 147 135 144 128 143 195 171 148 123 201 186 251 321 314 299 327 369 450 459 452 329 303 287 286 298 287 290 291 290 284 285 292 283 306 296 319 348 349
111 121 133 128 129 151 160 121 132 145 135 163 137 122 134 168 147 190 125 184 212 326 312 299 318 335 403 434 415 334 302 289 289 281 272 282 293 290 284 283 277 266 300 285 288 304 317
131 140 134 127 118 142 156 142 146 157 129 139 134 161 129 151 126 110 116 112 173 243 315 303 315 320 347 403 398 319 305 294 285 287 296 288 291 291 286 281 306 281 277 286 316 288 306
118 125 135 126 131 135 142 130 143 137 131 157 127 147 161 121 173 193 113 111 345 191 314 303 292 309 317 440 413 317 297 278 288 285 285 288 294 293 286 291 283 267 284 272 285 295 284
121 124 134 139 127 142 142 144 136 138 144 129 154 148 128 171 170 200 118 114 136 147 313 306 216 303 292 327 437 318 300 288 296 282 278 279 274 281 283 294 291 281 288 282 268 266 301
119 132 151 144 145 146 150 154 133 126 130 135 154 136 146 136 110 157 199 133 314 129 135 300 153 284 306 295 331 403 300 297 291 275 275 282 277 268 279 278 284 285 288 281 279 286 270
125 176 132 138 128 138 153 147 132 134 128 141 103 162 122 189 163 149 118 115 113 206 151 300 286 287 281 296 290 308 338 282 287 277 272 279 282 285 283 258 261 269 268 271 250 282 278
127 134 146 134 119 140 145 146 126 153 125 142 141 139 129 179 172 203 160 417 111 331 228 133 295 289 283 273 287 287 279 327 304 292 279 277 271 269 269 271 277 274 275 278 270 278 294
117 127 137 132 123 141 141 132 138 133 132 131 142 147 128 140 168 191 149 153 166 172 132 257 303 294 286 278 272 277 291 276 272 291 315 285 278 278 271 276 276 298 314 309 305 306 330
124 129 116 128 125 138 146 145 147 124 140 96 141 157 133 116 223 181 157 157 186 153 314 153 304 298 288 280 276 271 265 267 293 282 267 266 276 302 298 294 287 288 281 281 285 289 291
126 228 129 132 128 148 159 125 141 132 126 129 146 138 150 125 129 141 163 280 183 301 160 135 148 304 292 280 278 275 267 263 264 269 283 284 282 270 261 261 263 269 272 275 275 271 273
132 172 134 140 126 180 152 158 136 126 109 116 133 130 123 131 128 149 209 239 463 119 148 217 174 270 273 286 281 245 272 267 263 260 258 265 282 280 277 268 268 263 265 269 264 261 279
141 213 118 132 133 135 129 155 127 154 133 122 129 145 158 177 179 186 122 121 168 111 117 170 325 297 299 292 287 282 276 272 270 265 260 260 260 275 275 285 277 270 262 259 263 265 267
129 129 126 141 134 153 150 163 168 136 120 118 115 135 149 144 149 184 233 170 168 260 116 126 332 321 307 294 289 275 279 275 273 272 269 265 263 261 258 279 282 280 282 283 278 286 288
157 133 136 138 139 155 122 139 163 127 125 110 108 144 131 141 157 139 143 139 252 289 370 115 349 327 306 292 287 285 284 277 272 274 270 271 270 267 266 261 285 277 272 272 269 274 285
147 144 131 153 150 150 202 188 152 128 110 135 139 125 122 135 138 179 116 211 224 270 225 314 303 338 310 188 291 284 284 276 278 271 278 274 273 269 268 269 263 283 279 268 262 255 273
128 134 135 161 153 136 170 162 151 130 142 129 137 120 125 135 119 133 130 153 140 222 178 398 401 357 323 302 292 283 279 281 279 278 281 285 285 278 274 270 268 259 268 288 272 262 255